WA4BPS Weather Reports


time (UTC)temp
C
wind
direction
speed
KPH
gust
KPH
rain 1hr
cm
rain 24hr
cm
rain mn
cm
humidity
%
barometer
mb
20260508094937 10 102 12.9 20.9 0.00 0.00 0.00 64 1012.1
20260508094836 10 109 12.9 22.5 0.00 0.00 0.00 64 1012.1
20260508094736 10 278 11.3 22.5 0.00 0.00 0.00 64 1012.1
20260508094709 10 315 14.5 22.5 0.00 0.00 0.00 63 1012.1
20260508094525 10 220 12.9 22.5 0.00 0.00 0.00 62 1012.1
20260508094443 10 72 12.9 22.5 0.00 0.00 0.00 63 1012.1
20260508094341 10 123 9.7 22.5 0.00 0.00 0.00 65 1011.9
20260508094259 10 113 11.3 22.5 0.00 0.00 0.00 65 1011.9
20260508094136 10 328 14.5 22.5 0.00 0.00 0.00 64 1011.9
20260508094034 10 313 17.7 22.5 0.00 0.00 0.00 64 1011.9
20260508093953 10 217 14.5 20.9 0.00 0.00 0.00 64 1011.9
20260508093834 10 114 16.1 20.9 0.00 0.00 0.00 63 1011.9
20260508093735 10 134 16.1 20.9 0.00 0.00 0.00 64 1011.9
20260508093634 10 96 12.9 20.9 0.00 0.00 0.00 64 1011.9
20260508093533 10 205 14.5 20.9 0.00 0.00 0.00 65 1011.9
20260508093432 10 133 16.1 20.9 0.00 0.00 0.00 64 1011.9
20260508093330 10 265 9.7 20.9 0.00 0.00 0.00 65 1011.9
20260508093229 10 215 11.3 20.9 0.00 0.00 0.00 64 1011.9
20260508093200 10 128 12.9 20.9 0.00 0.00 0.00 64 1011.9
20260508093041 10 102 12.9 20.9 0.00 0.00 0.00 65 1011.9
20260508092939 10 210 11.3 20.9 0.00 0.00 0.00 65 1011.9
20260508092837 10 289 12.9 19.3 0.00 0.00 0.00 65 1012.0
20260508092735 10 203 12.9 19.3 0.00 0.00 0.00 66 1012.0
20260508092634 10 261 12.9 19.3 0.00 0.00 0.00 65 1012.0
20260508092533 10 186 12.9 19.3 0.00 0.00 0.00 65 1012.0
20260508092435 10 199 9.7 17.7 0.00 0.00 0.00 64 1012.0
20260508092333 10 199 12.9 17.7 0.00 0.00 0.00 63 1012.0
20260508092251 10 234 14.5 20.9 0.00 0.00 0.00 65 1012.0
20260508092128 10 206 16.1 20.9 0.00 0.00 0.00 65 1012.0
20260508092027 10 333 11.3 20.9 0.00 0.00 0.00 65 1012.0
20260508091945 10 291 11.3 20.9 0.00 0.00 0.00 65 1012.0
20260508091843 10 107 11.3 20.9 0.00 0.00 0.00 65 1012.0
20260508091732 10 110 14.5 20.9 0.00 0.00 0.00 65 1012.0
20260508091646 10 224 14.5 20.9 0.00 0.00 0.00 65 1012.0
20260508091524 10 195 12.9 20.9 0.00 0.00 0.00 66 1012.0
20260508091427 10 247 14.5 20.9 0.00 0.00 0.00 66 1012.0
20260508091326 10 128 11.3 20.9 0.00 0.00 0.00 66 1011.9
20260508091244 10 309 11.3 20.9 0.00 0.00 0.00 66 1011.9
20260508091142 10 305 16.1 20.9 0.00 0.00 0.00 66 1011.9
20260508091040 10 126 14.5 22.5 0.00 0.00 0.00 67 1011.9
20260508090924 10 215 11.3 22.5 0.00 0.00 0.00 66 1011.9
20260508090846 10 251 11.3 22.5 0.00 0.00 0.00 67 1011.9
20260508090743 10 88 12.9 22.5 0.00 0.00 0.00 67 1011.9
20260508090639 10 292 14.5 22.5 0.00 0.00 0.00 67 1011.9
20260508090559 10 260 14.5 22.5 0.00 0.00 0.00 67 1011.9
20260508090434 10 312 14.5 22.5 0.00 0.00 0.00 67 1011.9
20260508090331 10 220 12.9 22.5 0.00 0.00 0.00 67 1011.9
20260508090240 10 192 17.7 22.5 0.00 0.00 0.00 67 1011.9
20260508090151 10 329 16.1 22.5 0.00 0.00 0.00 67 1011.9
20260508090031 10 80 14.5 19.3 0.00 0.00 0.00 68 1011.9
20260508085929 10 212 11.3 19.3 0.00 0.00 0.00 68 1011.9
20260508085847 10 223 14.5 19.3 0.00 0.00 0.00 68 1011.8
20260508085744 10 167 14.5 19.3 0.00 0.00 0.00 68 1011.8
20260508085642 10 188 16.1 19.3 0.00 0.00 0.00 68 1011.8
20260508085538 10 209 12.9 19.3 0.00 0.00 0.00 68 1011.8
20260508085437 10 313 11.3 19.3 0.00 0.00 0.00 68 1011.8
20260508085335 10 229 14.5 19.3 0.00 0.00 0.00 68 1011.8
20260508085239 10 232 12.9 19.3 0.00 0.00 0.00 68 1011.8
20260508085136 10 145 12.9 19.3 0.00 0.00 0.00 69 1011.8
20260508085033 10 236 14.5 19.3 0.00 0.00 0.00 69 1011.8
20260508084932 10 137 14.5 19.3 0.00 0.00 0.00 70 1011.8
20260508084830 10 230 12.9 19.3 0.00 0.00 0.00 70 1011.8
20260508084730 10 223 12.9 19.3 0.00 0.00 0.00 70 1011.8
20260508084700 10 328 11.3 19.3 0.00 0.00 0.00 70 1011.8
20260508084542 10 113 14.5 19.3 0.00 0.00 0.00 71 1011.8
20260508084440 10 185 12.9 19.3 0.00 0.00 0.00 71 1011.8
20260508084339 10 209 16.1 19.3 0.00 0.00 0.00 71 1011.7
20260508084237 10 332 12.9 19.3 0.00 0.00 0.00 71 1011.7
20260508084136 10 78 11.3 19.3 0.00 0.00 0.00 71 1011.7
20260508084034 10 226 14.5 19.3 0.00 0.00 0.00 72 1011.7
20260508083934 10 188 14.5 19.3 0.00 0.00 0.00 72 1011.7
20260508083836 10 285 11.3 19.3 0.00 0.00 0.00 72 1011.7
20260508083734 10 301 12.9 19.3 0.00 0.00 0.00 73 1011.7
20260508083653 10 168 12.9 19.3 0.00 0.00 0.00 73 1011.7
20260508083530 10 168 11.3 19.3 0.00 0.00 0.00 73 1011.7
20260508083429 10 258 12.9 19.3 0.00 0.00 0.00 73 1011.7
20260508083328 10 172 11.3 19.3 0.00 0.00 0.00 73 1011.7
20260508083237 10 195 16.1 19.3 0.00 0.00 0.00 73 1011.7
20260508083151 10 253 12.9 19.3 0.00 0.00 0.00 74 1011.7
20260508083047 10 212 12.9 19.3 0.00 0.00 0.00 74 1011.7
20260508082946 10 151 11.3 19.3 0.00 0.00 0.00 74 1011.7
20260508082843 10 198 12.9 19.3 0.00 0.00 0.00 74 1011.7
20260508082724 10 210 11.3 19.3 0.00 0.00 0.00 74 1011.7
20260508082641 10 172 12.9 19.3 0.00 0.00 0.00 74 1011.7
20260508082540 10 264 11.3 19.3 0.00 0.00 0.00 74 1011.7
20260508082435 10 137 12.9 19.3 0.00 0.00 0.00 74 1011.7
20260508082334 10 213 11.3 19.3 0.00 0.00 0.00 74 1011.7
20260508082236 10 244 11.3 19.3 0.00 0.00 0.00 74 1011.7
20260508082155 10 196 9.7 19.3 0.00 0.00 0.00 74 1011.7
20260508082034 10 192 11.3 19.3 0.00 0.00 0.00 74 1011.7
20260508081936 10 121 11.3 17.7 0.00 0.00 0.00 74 1011.7
20260508081854 10 150 11.3 17.7 0.00 0.00 0.00 74 1011.7
20260508081743 10 169 14.5 17.7 0.00 0.00 0.00 75 1011.7
20260508081651 10 162 9.7 17.7 0.00 0.00 0.00 75 1011.7
20260508081548 10 257 9.7 17.7 0.00 0.00 0.00 75 1011.7
20260508081424 10 147 8.0 17.7 0.00 0.00 0.00 75 1011.7
20260508081325 10 277 12.9 17.7 0.00 0.00 0.00 75 1011.7
20260508081243 10 299 12.9 17.7 0.00 0.00 0.00 75 1011.7
20260508081141 10 191 12.9 17.7 0.00 0.00 0.00 75 1011.7
20260508081040 10 182 12.9 17.7 0.00 0.00 0.00 75 1011.7
20260508080937 10 277 9.7 17.7 0.00 0.00 0.00 76 1011.7
20260508080834 10 82 8.0 17.7 0.00 0.00 0.00 76 1011.7
20260508080732 10 278 12.9 17.7 0.00 0.00 0.00 75 1011.7
20260508080631 10 275 11.3 17.7 0.00 0.00 0.00 75 1011.7
20260508080535 10 130 9.7 17.7 0.00 0.00 0.00 75 1011.7
20260508080455 10 316 9.7 17.7 0.00 0.00 0.00 75 1011.7
20260508080332 10 138 11.3 17.7 0.00 0.00 0.00 75 1011.7
20260508080250 10 282 11.3 17.7 0.00 0.00 0.00 75 1011.7
20260508080201 10 260 12.9 17.7 0.00 0.00 0.00 75 1011.7
20260508080039 10 222 12.9 17.7 0.00 0.00 0.00 76 1011.7
20260508075937 10 329 9.7 17.7 0.00 0.00 0.00 76 1011.7
20260508075836 10 72 9.7 17.7 0.00 0.00 0.00 76 1011.8
20260508075736 10 251 11.3 17.7 0.00 0.00 0.00 76 1011.8
20260508075635 10 222 12.9 17.7 0.00 0.00 0.00 75 1011.8
20260508075534 11 284 9.7 17.7 0.00 0.00 0.00 75 1011.8
20260508075432 11 240 9.7 17.7 0.00 0.00 0.00 75 1011.8
20260508075330 11 282 11.3 17.7 0.00 0.00 0.00 75 1011.8
20260508075229 11 323 8.0 17.7 0.00 0.00 0.00 75 1011.8
20260508075127 11 309 11.3 17.7 0.00 0.00 0.00 75 1011.8
20260508075030 11 112 9.7 17.7 0.00 0.00 0.00 75 1011.8
20260508074929 11 241 12.9 17.7 0.00 0.00 0.00 75 1011.8
20260508074827 11 329 9.7 17.7 0.00 0.00 0.00 75 1011.8
20260508074727 11 304 6.4 16.1 0.00 0.00 0.00 75 1011.8
20260508074656 11 226 11.3 19.3 0.00 0.00 0.00 75 1011.8
20260508074533 11 318 11.3 19.3 0.00 0.00 0.00 74 1011.8
20260508074452 11 298 9.7 19.3 0.00 0.00 0.00 74 1011.8
20260508074337 11 261 11.3 19.3 0.00 0.00 0.00 74 1011.7
20260508074234 11 280 11.3 19.3 0.00 0.00 0.00 75 1011.7
20260508074152 11 226 9.7 19.3 0.00 0.00 0.00 75 1011.7
20260508074050 11 223 9.7 19.3 0.00 0.00 0.00 74 1011.7
20260508073929 11 330 11.3 19.3 0.00 0.00 0.00 74 1011.7
20260508073847 11 112 14.5 19.3 0.00 0.00 0.00 74 1011.7
20260508073748 11 138 8.0 16.1 0.00 0.00 0.00 74 1011.7
20260508073646 11 237 11.3 16.1 0.00 0.00 0.00 74 1011.7
20260508073524 11 277 11.3 16.1 0.00 0.00 0.00 74 1011.7
20260508073429 11 151 9.7 16.1 0.00 0.00 0.00 74 1011.7
20260508073327 11 270 9.7 16.1 0.00 0.00 0.00 74 1011.7
20260508073226 11 244 11.3 16.1 0.00 0.00 0.00 74 1011.7
20260508073158 11 208 8.0 16.1 0.00 0.00 0.00 74 1011.7
20260508073039 11 323 6.4 16.1 0.00 0.00 0.00 74 1011.7
20260508072937 11 318 8.0 16.1 0.00 0.00 0.00 74 1011.7
20260508072835 11 313 11.3 16.1 0.00 0.00 0.00 74 1011.7
20260508072733 11 130 8.0 12.9 0.00 0.00 0.00 74 1011.7
20260508072656 11 312 11.3 12.9 0.00 0.00 0.00 74 1011.7
20260508072534 11 294 11.3 12.9 0.00 0.00 0.00 74 1011.7
20260508072433 11 220 9.7 14.5 0.00 0.00 0.00 74 1011.7
20260508072331 11 333 8.0 17.7 0.00 0.00 0.00 74 1011.7
20260508072232 11 193 9.7 17.7 0.00 0.00 0.00 74 1011.7
20260508072132 11 253 6.4 17.7 0.00 0.00 0.00 74 1011.7
20260508072030 11 150 9.7 17.7 0.00 0.00 0.00 73 1011.7
20260508071933 11 193 8.0 17.7 0.00 0.00 0.00 73 1011.7
20260508071832 11 268 8.0 17.7 0.00 0.00 0.00 73 1011.7
20260508071730 11 306 8.0 17.7 0.00 0.00 0.00 73 1011.7
20260508071659 11 199 9.7 17.7 0.00 0.00 0.00 73 1011.7
20260508071538 11 309 11.3 17.7 0.00 0.00 0.00 73 1011.7
20260508071436 11 332 11.3 17.7 0.00 0.00 0.00 73 1011.7
20260508071334 11 288 11.3 17.7 0.00 0.00 0.00 73 1012.1
20260508071236 11 198 11.3 12.9 0.00 0.00 0.00 72 1012.1
20260508071135 11 253 9.7 12.9 0.00 0.00 0.00 73 1012.1
20260508071032 11 188 9.7 12.9 0.00 0.00 0.00 73 1012.1
20260508070931 11 260 8.0 12.9 0.00 0.00 0.00 72 1012.1
20260508070849 11 138 8.0 16.1 0.00 0.00 0.00 72 1012.1
20260508070725 11 164 8.0 16.1 0.00 0.00 0.00 72 1012.1
20260508070645 11 196 8.0 16.1 0.00 0.00 0.00 72 1012.1
20260508070604 11 330 9.7 16.1 0.00 0.00 0.00 72 1012.1
20260508070424 11 328 11.3 16.1 0.00 0.00 0.00 72 1012.1
20260508070342 11 280 11.3 16.1 0.00 0.00 0.00 72 1012.1
20260508070259 11 271 11.3 16.1 0.00 0.00 0.00 72 1012.1
20260508070208 11 298 11.3 16.1 0.00 0.00 0.00 72 1012.1
20260508070024 11 289 12.9 16.1 0.00 0.00 0.00 72 1012.1
20260508065924 11 325 9.7 16.1 0.00 0.00 0.00 72 1012.1
20260508065824 11 332 11.3 16.1 0.00 0.00 0.00 71 1012.1
20260508065743 11 164 11.3 17.7 0.00 0.00 0.00 71 1012.1
20260508065641 11 332 11.3 17.7 0.00 0.00 0.00 71 1012.1
20260508065559 11 332 9.7 17.7 0.00 0.00 0.00 71 1012.1
20260508065441 11 298 11.3 17.7 0.00 0.00 0.00 71 1012.1
20260508065340 11 260 11.3 17.7 0.00 0.00 0.00 71 1012.1
20260508065240 11 277 9.7 17.7 0.00 0.00 0.00 71 1012.1
20260508065140 11 113 9.7 17.7 0.00 0.00 0.00 71 1012.1
20260508065039 11 329 11.3 17.7 0.00 0.00 0.00 70 1012.1
20260508064937 11 313 8.0 17.7 0.00 0.00 0.00 71 1012.1
20260508064840 11 120 12.9 17.7 0.00 0.00 0.00 70 1012.1
20260508064739 11 254 9.7 16.1 0.00 0.00 0.00 70 1012.1
20260508064648 11 203 11.3 16.1 0.00 0.00 0.00 70 1012.1
20260508064526 11 272 8.0 16.1 0.00 0.00 0.00 71 1012.1
20260508064443 11 88 8.0 16.1 0.00 0.00 0.00 70 1012.1
20260508064342 11 319 11.3 16.1 0.00 0.00 0.00 71 1012.4
20260508064301 11 76 9.7 16.1 0.00 0.00 0.00 71 1012.4
20260508064139 11 176 9.7 16.1 0.00 0.00 0.00 70 1012.4
20260508064041 11 257 8.0 16.1 0.00 0.00 0.00 70 1012.4
20260508063940 11 265 9.7 16.1 0.00 0.00 0.00 70 1012.4
20260508063838 11 186 9.7 16.1 0.00 0.00 0.00 69 1012.4
20260508063737 11 280 9.7 16.1 0.00 0.00 0.00 69 1012.4
20260508063636 11 162 11.3 16.1 0.00 0.00 0.00 69 1012.4
20260508063537 11 137 11.3 16.1 0.00 0.00 0.00 69 1012.4
20260508063436 11 40 9.7 16.1 0.00 0.00 0.00 69 1012.4
20260508063339 11 182 9.7 16.1 0.00 0.00 0.00 69 1012.4
20260508063257 11 143 11.3 16.1 0.00 0.00 0.00 69 1012.4
20260508063208 11 332 12.9 16.1 0.00 0.00 0.00 68 1012.4
20260508063045 11 332 9.7 16.1 0.00 0.00 0.00 68 1012.4
20260508062942 11 161 8.0 16.1 0.00 0.00 0.00 68 1012.4
20260508062840 11 285 6.4 16.1 0.00 0.00 0.00 68 1012.4
20260508062738 11 234 11.3 16.1 0.00 0.00 0.00 68 1012.4
20260508062636 11 206 9.7 16.1 0.00 0.00 0.00 68 1012.4
20260508062534 11 208 9.7 16.1 0.00 0.00 0.00 68 1012.4
20260508062436 11 230 9.7 17.7 0.00 0.00 0.00 68 1012.4
20260508062339 11 264 9.7 17.7 0.00 0.00 0.00 68 1012.4
20260508062237 11 236 11.3 17.7 0.00 0.00 0.00 68 1012.4
20260508062135 12 332 9.7 17.7 0.00 0.00 0.00 68 1012.4
20260508062033 12 248 8.0 17.7 0.00 0.00 0.00 68 1012.4
20260508061931 12 323 9.7 17.7 0.00 0.00 0.00 68 1012.4
20260508061849 12 110 8.0 17.7 0.00 0.00 0.00 68 1012.4
20260508061737 12 333 6.4 17.7 0.00 0.00 0.00 68 1012.4
20260508061651 12 71 8.0 17.7 0.00 0.00 0.00 68 1012.4
20260508061528 12 311 11.3 17.7 0.00 0.00 0.00 68 1012.4
20260508061427 12 229 8.0 17.7 0.00 0.00 0.00 68 1012.4
20260508061326 12 315 12.9 17.7 0.00 0.00 0.00 68 1012.5
20260508061244 12 196 11.3 17.7 0.00 0.00 0.00 69 1012.5
20260508061142 12 294 6.4 14.5 0.00 0.00 0.00 69 1012.5
20260508061040 12 332 6.4 14.5 0.00 0.00 0.00 68 1012.5
20260508060942 12 213 9.7 14.5 0.00 0.00 0.00 68 1012.5
20260508060840 12 107 9.7 14.5 0.00 0.00 0.00 68 1012.5
20260508060800 12 161 9.7 17.7 0.00 0.00 0.00 68 1012.5
20260508060640 12 316 9.7 17.7 0.00 0.00 0.00 68 1012.5
20260508060538 12 184 8.0 17.7 0.00 0.00 0.00 68 1012.5
20260508060456 12 258 6.4 17.7 0.00 0.00 0.00 67 1012.5
20260508060334 12 319 11.3 17.7 0.00 0.00 0.00 67 1012.5
20260508060232 12 164 9.7 17.7 0.00 0.00 0.00 68 1012.5
20260508060206 12 172 9.7 17.7 0.00 0.00 0.00 68 1012.5
20260508060103 12 148 9.7 17.7 0.00 0.00 0.00 68 1012.5
20260508055940 12 260 11.3 17.7 0.00 0.00 0.00 68 1012.5
20260508055839 12 330 8.0 16.1 0.00 0.00 0.00 68 1012.7
20260508055737 12 164 9.7 16.1 0.00 0.00 0.00 68 1012.7
20260508055636 12 85 11.3 16.1 0.00 0.00 0.00 68 1012.7
20260508055533 12 322 8.0 16.1 0.00 0.00 0.00 68 1012.7
20260508055436 12 320 9.7 16.1 0.00 0.00 0.00 68 1012.7
20260508055334 12 192 9.7 16.1 0.00 0.00 0.00 69 1012.7
20260508055231 12 113 11.3 16.1 0.00 0.00 0.00 68 1012.7
20260508055130 12 332 8.0 16.1 0.00 0.00 0.00 68 1012.7
20260508055028 12 271 8.0 16.1 0.00 0.00 0.00 68 1012.7
20260508054946 12 315 6.4 16.1 0.00 0.00 0.00 67 1012.7
20260508054904 12 329 4.8 16.1 0.00 0.00 0.00 66 1012.7
20260508054738 12 216 11.3 16.1 0.00 0.00 0.00 67 1012.7
20260508054648 12 237 6.4 16.1 0.00 0.00 0.00 67 1012.7
20260508054525 12 292 8.0 16.1 0.00 0.00 0.00 67 1012.7
20260508054444 12 282 4.8 16.1 0.00 0.00 0.00 67 1012.7
20260508054341 12 200 6.4 16.1 0.00 0.00 0.00 66 1012.6
20260508054240 12 244 9.7 16.1 0.00 0.00 0.00 66 1012.6
20260508054139 12 208 11.3 16.1 0.00 0.00 0.00 67 1012.6
20260508054038 12 325 9.7 16.1 0.00 0.00 0.00 68 1012.6
20260508053940 12 148 8.0 16.1 0.00 0.00 0.00 67 1012.6
20260508053841 12 93 9.7 16.1 0.00 0.00 0.00 67 1012.6
20260508053738 12 282 9.7 16.1 0.00 0.00 0.00 67 1012.6
20260508053637 12 121 6.4 12.9 0.00 0.00 0.00 67 1012.6
20260508053535 12 210 8.0 12.9 0.00 0.00 0.00 67 1012.6
20260508053433 12 282 9.7 12.9 0.00 0.00 0.00 68 1012.6
20260508053336 12 216 8.0 12.9 0.00 0.00 0.00 67 1012.6
20260508053256 12 308 4.8 12.9 0.00 0.00 0.00 66 1012.6
20260508053227 12 104 6.4 12.9 0.00 0.00 0.00 65 1012.6
20260508053042 12 320 6.4 12.9 0.00 0.00 0.00 65 1012.6
20260508053001 12 308 4.8 12.9 0.00 0.00 0.00 65 1012.6
20260508052838 12 281 6.4 12.9 0.00 0.00 0.00 66 1012.6
20260508052736 12 224 6.4 12.9 0.00 0.00 0.00 66 1012.6
20260508052635 12 209 8.0 12.9 0.00 0.00 0.00 65 1012.6
20260508052534 12 140 8.0 12.9 0.00 0.00 0.00 65 1012.6
20260508052457 12 244 4.8 12.9 0.00 0.00 0.00 65 1012.6
20260508052334 12 330 6.4 12.9 0.00 0.00 0.00 65 1012.6
20260508052232 12 313 8.0 12.9 0.00 0.00 0.00 65 1012.6
20260508052130 12 76 11.3 12.9 0.00 0.00 0.00 65 1012.6
20260508052029 12 175 9.7 12.9 0.00 0.00 0.00 66 1012.6
20260508051929 12 329 8.0 12.9 0.00 0.00 0.00 65 1012.6
20260508051827 12 79 6.4 12.9 0.00 0.00 0.00 64 1012.6
20260508051741 12 195 9.7 12.9 0.00 0.00 0.00 64 1012.6
20260508051651 12 210 9.7 12.9 0.00 0.00 0.00 64 1012.6
20260508051529 12 76 9.7 12.9 0.00 0.00 0.00 65 1012.6
20260508051426 12 124 9.7 12.9 0.00 0.00 0.00 65 1012.6
20260508051344 12 329 4.8 11.3 0.00 0.00 0.00 65 1012.6
20260508051242 12 205 4.8 11.3 0.00 0.00 0.00 65 1012.6
20260508051140 12 274 6.4 11.3 0.00 0.00 0.00 65 1012.6
20260508051040 12 229 4.8 11.3 0.00 0.00 0.00 65 1012.6
20260508051003 12 165 6.4 11.3 0.00 0.00 0.00 66 1012.6
20260508050839 12 291 6.4 11.3 0.00 0.00 0.00 68 1012.6
20260508050759 12 323 6.4 11.3 0.00 0.00 0.00 68 1012.6
20260508050636 12 295 8.0 11.3 0.00 0.00 0.00 68 1012.6
20260508050533 12 212 3.2 9.7 0.00 0.00 0.00 67 1012.6
20260508050432 12 330 1.6 9.7 0.00 0.00 0.00 66 1012.6
20260508050350 12 333 3.2 9.7 0.00 0.00 0.00 66 1012.6
20260508050248 12 233 4.8 9.7 0.00 0.00 0.00 65 1012.6
20260508050156 12 329 3.2 9.7 0.00 0.00 0.00 65 1012.6
20260508050038 12 260 3.2 9.7 0.00 0.00 0.00 66 1012.6
20260508045935 12 137 4.8 11.3 0.00 0.00 0.00 67 1012.6
20260508045834 12 329 4.8 11.3 0.00 0.00 0.00 66 1012.4
20260508045755 12 330 6.4 11.3 0.00 0.00 0.00 65 1012.4
20260508045632 12 332 6.4 11.3 0.00 0.00 0.00 65 1012.4
20260508045531 12 332 6.4 11.3 0.00 0.00 0.00 66 1012.4
20260508045431 12 332 6.4 12.9 0.00 0.00 0.00 66 1012.4
20260508045337 12 332 4.8 12.9 0.00 0.00 0.00 66 1012.4
20260508045235 12 330 8.0 12.9 0.00 0.00 0.00 67 1012.4
20260508045133 12 220 6.4 12.9 0.00 0.00 0.00 67 1012.4
20260508045032 12 215 3.2 12.9 0.00 0.00 0.00 66 1012.4
20260508044932 12 240 3.2 12.9 0.00 0.00 0.00 66 1012.4
20260508044829 12 330 4.8 12.9 0.00 0.00 0.00 66 1012.4
20260508044749 12 329 4.8 12.9 0.00 0.00 0.00 66 1012.4
20260508044658 13 332 4.8 12.9 0.00 0.00 0.00 66 1012.4
20260508044540 13 330 1.6 9.7 0.00 0.00 0.00 65 1012.4
20260508044440 13 332 3.2 11.3 0.00 0.00 0.00 66 1012.4
20260508044337 13 333 4.8 11.3 0.00 0.00 0.00 66 1012.3
20260508044236 13 332 8.0 11.3 0.00 0.00 0.00 65 1012.3
20260508044135 13 277 8.0 11.3 0.00 0.00 0.00 65 1012.3
20260508044053 13 244 3.2 11.3 0.00 0.00 0.00 65 1012.3
20260508043931 13 333 1.6 11.3 0.00 0.00 0.00 64 1012.3
20260508043834 13 168 3.2 12.9 0.00 0.00 0.00 65 1012.3
20260508043732 13 330 4.8 12.9 0.00 0.00 0.00 66 1012.3
20260508043650 13 332 4.8 12.9 0.00 0.00 0.00 65 1012.3
20260508043527 13 281 4.8 12.9 0.00 0.00 0.00 65 1012.3
20260508043425 13 224 1.6 12.9 0.00 0.00 0.00 65 1012.3
20260508043326 13 148 6.4 12.9 0.00 0.00 0.00 65 1012.3
20260508043226 13 332 8.0 12.9 0.00 0.00 0.00 65 1012.3
20260508043200 13 229 3.2 12.9 0.00 0.00 0.00 65 1012.3
20260508043036 13 333 3.2 12.9 0.00 0.00 0.00 66 1012.3
20260508042935 13 226 9.7 12.9 0.00 0.00 0.00 66 1012.3
20260508042834 13 240 3.2 12.9 0.00 0.00 0.00 65 1012.5
20260508042733 13 284 8.0 12.9 0.00 0.00 0.00 65 1012.5
20260508042632 13 241 4.8 9.7 0.00 0.00 0.00 65 1012.5
20260508042530 13 291 4.8 9.7 0.00 0.00 0.00 65 1012.5
20260508042432 13 332 4.8 9.7 0.00 0.00 0.00 65 1012.5
20260508042330 13 213 3.2 9.7 0.00 0.00 0.00 65 1012.5
20260508042249 13 328 3.2 9.7 0.00 0.00 0.00 64 1012.5
20260508042129 13 333 4.8 9.7 0.00 0.00 0.00 64 1012.5
20260508042027 13 332 6.4 9.7 0.00 0.00 0.00 63 1012.5
20260508041926 13 326 3.2 12.9 0.00 0.00 0.00 64 1012.5
20260508041826 13 236 8.0 12.9 0.00 0.00 0.00 64 1012.5
20260508041757 13 131 4.8 12.9 0.00 0.00 0.00 65 1012.5
20260508041649 13 333 3.2 12.9 0.00 0.00 0.00 65 1012.5
20260508041527 13 202 4.8 12.9 0.00 0.00 0.00 64 1012.5
20260508041425 13 210 6.4 12.9 0.00 0.00 0.00 65 1012.5
20260508041343 13 188 4.8 12.9 0.00 0.00 0.00 64 1012.7
20260508041243 13 296 4.8 12.9 0.00 0.00 0.00 64 1012.7
20260508041142 13 237 8.0 12.9 0.00 0.00 0.00 63 1012.7
20260508041041 13 332 6.4 12.9 0.00 0.00 0.00 64 1012.7
20260508040924 13 316 3.2 11.3 0.00 0.00 0.00 64 1012.7
20260508040843 13 294 1.6 12.9 0.00 0.00 0.00 65 1012.7
20260508040741 13 127 1.6 12.9 0.00 0.00 0.00 65 1012.7
20260508040640 13 288 4.8 12.9 0.00 0.00 0.00 64 1012.7
20260508040539 13 226 3.2 12.9 0.00 0.00 0.00 63 1012.7
20260508040438 13 212 3.2 12.9 0.00 0.00 0.00 63 1012.7
20260508040336 13 272 4.8 12.9 0.00 0.00 0.00 63 1012.7
20260508040242 13 328 4.8 12.9 0.00 0.00 0.00 63 1012.7
20260508040212 13 150 3.2 12.9 0.00 0.00 0.00 63 1012.7
20260508040028 13 27 9.7 12.9 0.00 0.00 0.00 63 1012.7
20260508035927 13 88 4.8 11.3 0.00 0.00 0.00 63 1012.7
20260508035845 13 332 6.4 11.3 0.00 0.00 0.00 62 1012.6
20260508035742 13 323 4.8 11.3 0.00 0.00 0.00 62 1012.6
20260508035642 13 76 3.2 11.3 0.00 0.00 0.00 62 1012.6
20260508035541 13 104 4.8 11.3 0.00 0.00 0.00 62 1012.6
20260508035459 13 313 8.0 11.3 0.00 0.00 0.00 63 1012.6
20260508035341 13 112 4.8 11.3 0.00 0.00 0.00 63 1012.6
20260508035240 13 325 4.8 11.3 0.00 0.00 0.00 62 1012.6
20260508035138 13 330 6.4 11.3 0.00 0.00 0.00 63 1012.6
20260508035036 13 203 6.4 9.7 0.00 0.00 0.00 63 1012.6
20260508034935 13 200 6.4 9.7 0.00 0.00 0.00 62 1012.6
20260508034853 13 309 6.4 9.7 0.00 0.00 0.00 62 1012.6
20260508034740 13 318 4.8 9.7 0.00 0.00 0.00 62 1012.6
20260508034653 13 330 3.2 9.7 0.00 0.00 0.00 61 1012.6
20260508034532 13 326 3.2 9.7 0.00 0.00 0.00 61 1012.6
20260508034430 13 275 8.0 9.7 0.00 0.00 0.00 61 1012.6
20260508034348 13 322 6.4 9.7 0.00 0.00 0.00 62 1012.7
20260508034307 13 251 6.4 9.7 0.00 0.00 0.00 62 1012.7
20260508034204 13 332 6.4 11.3 0.00 0.00 0.00 61 1012.7
20260508034102 13 333 6.4 11.3 0.00 0.00 0.00 61 1012.7
20260508033940 13 350 6.4 11.3 0.00 0.00 0.00 61 1012.7
20260508033839 13 330 8.0 11.3 0.00 0.00 0.00 61 1012.7
20260508033741 13 359 4.8 11.3 0.00 0.00 0.00 61 1012.7
20260508033700 13 333 4.8 11.3 0.00 0.00 0.00 63 1012.7
20260508033536 13 332 6.4 11.3 0.00 0.00 0.00 62 1012.7
20260508033435 13 339 4.8 11.3 0.00 0.00 0.00 62 1012.7
20260508033334 13 360 8.0 12.9 0.00 0.00 0.00 62 1012.7
20260508033252 13 113 6.4 12.9 0.00 0.00 0.00 62 1012.7
20260508033223 13 330 4.8 12.9 0.00 0.00 0.00 61 1012.7
20260508033039 13 360 6.4 12.9 0.00 0.00 0.00 60 1012.7
20260508032941 13 332 4.8 12.9 0.00 0.00 0.00 60 1012.7
20260508032840 14 359 4.8 12.9 0.00 0.00 0.00 59 1012.5
20260508032759 14 342 4.8 12.9 0.00 0.00 0.00 61 1012.5
20260508032637 14 333 8.0 12.9 0.00 0.00 0.00 59 1012.5
20260508032535 14 330 8.0 12.9 0.00 0.00 0.00 59 1012.5
20260508032434 14 346 8.0 12.9 0.00 0.00 0.00 59 1012.5
20260508032332 14 333 8.0 12.9 0.00 0.00 0.00 59 1012.5
20260508032234 14 332 8.0 12.9 0.00 0.00 0.00 59 1012.5
20260508032132 14 333 9.7 12.9 0.00 0.00 0.00 58 1012.5
20260508032030 14 349 9.7 12.9 0.00 0.00 0.00 58 1012.5
20260508031929 14 332 8.0 12.9 0.00 0.00 0.00 59 1012.5
20260508031827 14 352 11.3 12.9 0.00 0.00 0.00 59 1012.5
20260508031736 14 329 4.8 12.9 0.00 0.00 0.00 60 1012.5
20260508031645 14 306 9.7 14.5 0.00 0.00 0.00 59 1012.5
20260508031526 14 332 6.4 16.1 0.00 0.00 0.00 59 1012.5
20260508031425 14 328 9.7 16.1 0.00 0.00 0.00 57 1012.5
20260508031344 14 335 8.0 16.1 0.00 0.00 0.00 57 1012.7
20260508031242 14 330 9.7 16.1 0.00 0.00 0.00 57 1012.7
20260508031142 14 350 4.8 16.1 0.00 0.00 0.00 59 1012.7
20260508031041 14 332 8.0 16.1 0.00 0.00 0.00 59 1012.7
20260508030940 14 332 9.7 16.1 0.00 0.00 0.00 60 1012.7
20260508030841 14 332 9.7 16.1 0.00 0.00 0.00 59 1012.7
20260508030740 14 346 8.0 16.1 0.00 0.00 0.00 58 1012.7
20260508030639 14 323 9.7 16.1 0.00 0.00 0.00 59 1012.7
20260508030536 14 335 8.0 16.1 0.00 0.00 0.00 59 1012.7
20260508030434 14 328 8.0 16.1 0.00 0.00 0.00 59 1012.7
20260508030332 14 329 8.0 16.1 0.00 0.00 0.00 58 1012.7
20260508030231 14 330 6.4 16.1 0.00 0.00 0.00 57 1012.7
20260508030206 14 330 8.0 16.1 0.00 0.00 0.00 57 1012.7
20260508030103 14 330 9.7 16.1 0.00 0.00 0.00 58 1012.7
20260508025941 14 330 9.7 14.5 0.00 0.00 0.00 58 1012.7
20260508025839 14 330 9.7 14.5 0.00 0.00 0.00 57 1012.5
20260508025738 14 360 9.7 14.5 0.00 0.00 0.00 57 1012.5
20260508025636 14 347 6.4 14.5 0.00 0.00 0.00 56 1012.5
20260508025535 14 319 8.0 14.5 0.00 0.00 0.00 57 1012.5
20260508025455 14 330 9.7 14.5 0.00 0.00 0.00 57 1012.5
20260508025337 14 330 11.3 14.5 0.00 0.00 0.00 58 1012.5
20260508025236 14 340 8.0 14.5 0.00 0.00 0.00 58 1012.5
20260508025134 14 329 8.0 16.1 0.00 0.00 0.00 57 1012.5
20260508025033 14 343 6.4 16.1 0.00 0.00 0.00 58 1012.5
20260508024931 14 330 9.7 16.1 0.00 0.00 0.00 57 1012.5
20260508024827 14 352 6.4 16.1 0.00 0.00 0.00 56 1012.5
20260508024726 14 339 8.0 16.1 0.00 0.00 0.00 56 1012.5
20260508024657 14 342 9.7 16.1 0.00 0.00 0.00 56 1012.5
20260508024559 14 332 8.0 16.1 0.00 0.00 0.00 57 1012.5
20260508024436 14 329 8.0 16.1 0.00 0.00 0.00 57 1012.5
20260508024334 14 329 11.3 16.1 0.00 0.00 0.00 56 1012.5
20260508024235 14 326 6.4 12.9 0.00 0.00 0.00 57 1012.5
20260508024132 14 330 9.7 12.9 0.00 0.00 0.00 59 1012.5
20260508024030 14 346 9.7 12.9 0.00 0.00 0.00 58 1012.5
20260508023929 14 332 8.0 12.9 0.00 0.00 0.00 57 1012.5
20260508023852 14 342 8.0 12.9 0.00 0.00 0.00 56 1012.5
20260508023729 14 330 8.0 12.9 0.00 0.00 0.00 58 1012.5
20260508023627 14 336 6.4 12.9 0.00 0.00 0.00 57 1012.5
20260508023526 14 333 9.7 12.9 0.00 0.00 0.00 57 1012.5
20260508023426 14 330 8.0 12.9 0.00 0.00 0.00 57 1012.5
20260508023324 14 332 8.0 12.9 0.00 0.00 0.00 57 1012.5
20260508023243 14 93 8.0 12.9 0.00 0.00 0.00 57 1012.5
20260508023158 14 336 6.4 12.9 0.00 0.00 0.00 57 1012.5
20260508023055 14 329 8.0 12.9 0.00 0.00 0.00 57 1012.5
20260508022932 14 85 8.0 12.9 0.00 0.00 0.00 58 1012.5
20260508022830 14 282 9.7 12.9 0.00 0.00 0.00 59 1012.3
20260508022749 14 332 4.8 12.9 0.00 0.00 0.00 59 1012.3
20260508022628 14 336 8.0 12.9 0.00 0.00 0.00 59 1012.3
20260508022526 14 349 9.7 12.9 0.00 0.00 0.00 58 1012.3
20260508022424 14 306 6.4 12.9 0.00 0.00 0.00 57 1012.3
20260508022327 14 102 4.8 12.9 0.00 0.00 0.00 57 1012.3
20260508022226 14 330 11.3 12.9 0.00 0.00 0.00 56 1012.3
20260508022124 14 329 8.0 12.9 0.00 0.00 0.00 56 1012.3
20260508022042 14 329 8.0 12.9 0.00 0.00 0.00 57 1012.3
20260508021941 14 330 6.4 12.9 0.00 0.00 0.00 57 1012.3
20260508021838 14 332 6.4 12.9 0.00 0.00 0.00 57 1012.3
20260508021736 14 332 9.7 12.9 0.00 0.00 0.00 56 1012.3
20260508021644 14 333 8.0 12.9 0.00 0.00 0.00 56 1012.3
20260508021527 14 325 9.7 12.9 0.00 0.00 0.00 57 1012.3
20260508021445 14 326 9.7 12.9 0.00 0.00 0.00 58 1012.3
20260508021342 14 333 8.0 12.9 0.00 0.00 0.00 57 1012.3
20260508021240 14 329 9.7 12.9 0.00 0.00 0.00 58 1012.3
20260508021139 14 333 9.7 12.9 0.00 0.00 0.00 56 1012.3
20260508021038 14 332 4.8 12.9 0.00 0.00 0.00 58 1012.3
20260508020937 14 339 4.8 12.9 0.00 0.00 0.00 58 1012.3
20260508020838 14 330 6.4 12.9 0.00 0.00 0.00 58 1012.3
20260508020736 14 328 8.0 12.9 0.00 0.00 0.00 57 1012.3
20260508020635 14 335 8.0 12.9 0.00 0.00 0.00 58 1012.3
20260508020534 14 326 11.3 12.9 0.00 0.00 0.00 57 1012.3
20260508020453 14 330 8.0 11.3 0.00 0.00 0.00 56 1012.3
20260508020330 14 332 8.0 11.3 0.00 0.00 0.00 57 1012.3
20260508020228 14 339 9.7 11.3 0.00 0.00 0.00 57 1012.3
20260508020158 14 332 9.7 11.3 0.00 0.00 0.00 57 1012.3
20260508020039 14 332 8.0 11.3 0.00 0.00 0.00 56 1012.3
20260508015938 14 344 6.4 12.9 0.00 0.00 0.00 57 1012.3
20260508015837 14 330 8.0 12.9 0.00 0.00 0.00 59 1012.1
20260508015736 14 332 8.0 12.9 0.00 0.00 0.00 59 1012.1
20260508015634 14 333 6.4 12.9 0.00 0.00 0.00 59 1012.1
20260508015532 14 328 6.4 12.9 0.00 0.00 0.00 59 1012.1
20260508015434 14 332 4.8 12.9 0.00 0.00 0.00 60 1012.1
20260508015332 14 323 6.4 12.9 0.00 0.00 0.00 60 1012.1
20260508015229 14 340 6.4 12.9 0.00 0.00 0.00 59 1012.1
20260508015129 14 332 8.0 16.1 0.00 0.00 0.00 59 1012.1
20260508015028 14 330 6.4 16.1 0.00 0.00 0.00 59 1012.1
20260508014927 14 329 4.8 16.1 0.00 0.00 0.00 59 1012.1
20260508014826 14 339 8.0 16.1 0.00 0.00 0.00 59 1012.1
20260508014745 14 332 8.0 16.1 0.00 0.00 0.00 59 1012.1
20260508014718 14 332 8.0 16.1 0.00 0.00 0.00 59 1012.1
20260508014538 14 329 9.7 16.1 0.00 0.00 0.00 59 1012.1
20260508014438 14 347 8.0 16.1 0.00 0.00 0.00 59 1012.1
20260508014358 14 339 8.0 16.1 0.00 0.00 0.00 60 1012.0
20260508014236 14 332 11.3 16.1 0.00 0.00 0.00 60 1012.0
20260508014135 14 332 8.0 12.9 0.00 0.00 0.00 61 1012.0
20260508014033 14 332 8.0 12.9 0.00 0.00 0.00 60 1012.0
20260508013935 14 329 4.8 12.9 0.00 0.00 0.00 60 1012.0
20260508013833 14 336 8.0 12.9 0.00 0.00 0.00 60 1012.0
20260508013732 14 335 9.7 14.5 0.00 0.00 0.00 59 1012.0
20260508013629 14 332 9.7 14.5 0.00 0.00 0.00 60 1012.0
20260508013528 14 344 9.7 14.5 0.00 0.00 0.00 60 1012.0
20260508013427 14 339 9.7 14.5 0.00 0.00 0.00 61 1012.0
20260508013325 14 332 6.4 14.5 0.00 0.00 0.00 62 1012.0
20260508013227 14 329 9.7 14.5 0.00 0.00 0.00 61 1012.0
20260508013158 14 339 6.4 14.5 0.00 0.00 0.00 61 1012.0
20260508013035 14 339 9.7 14.5 0.00 0.00 0.00 62 1012.0
20260508012934 14 332 8.0 14.5 0.00 0.00 0.00 62 1012.0
20260508012831 14 333 6.4 16.1 0.00 0.00 0.00 62 1011.8
20260508012734 14 339 8.0 16.1 0.00 0.00 0.00 61 1011.8
20260508012632 14 330 6.4 16.1 0.00 0.00 0.00 61 1011.8
20260508012535 14 333 6.4 16.1 0.00 0.00 0.00 61 1011.8
20260508012434 14 326 8.0 16.1 0.00 0.00 0.00 60 1011.8
20260508012332 14 339 8.0 16.1 0.00 0.00 0.00 60 1011.8
20260508012232 14 330 8.0 16.1 0.00 0.00 0.00 60 1011.8
20260508012128 14 329 3.2 16.1 0.00 0.00 0.00 59 1011.8
20260508012027 14 344 9.7 16.1 0.00 0.00 0.00 60 1011.8
20260508011927 14 340 6.4 12.9 0.00 0.00 0.00 60 1011.8
20260508011831 14 328 9.7 12.9 0.00 0.00 0.00 60 1011.8
20260508011749 14 330 9.7 12.9 0.00 0.00 0.00 61 1011.8
20260508011719 14 323 8.0 12.9 0.00 0.00 0.00 62 1011.8
20260508011536 14 332 6.4 12.9 0.00 0.00 0.00 62 1011.8
20260508011434 14 333 3.2 11.3 0.00 0.00 0.00 61 1011.8
20260508011332 14 329 8.0 11.3 0.00 0.00 0.00 60 1011.5
20260508011232 14 332 4.8 12.9 0.00 0.00 0.00 62 1011.5
20260508011150 14 340 6.4 12.9 0.00 0.00 0.00 62 1011.5
20260508011030 14 329 3.2 12.9 0.00 0.00 0.00 62 1011.5
20260508010928 14 329 8.0 16.1 0.00 0.00 0.00 61 1011.5
20260508010827 14 329 6.4 16.1 0.00 0.00 0.00 61 1011.5
20260508010725 14 332 6.4 16.1 0.00 0.00 0.00 60 1011.5
20260508010624 14 332 9.7 16.1 0.00 0.00 0.00 60 1011.5
20260508010542 14 332 8.0 16.1 0.00 0.00 0.00 60 1011.5
20260508010442 14 336 8.0 16.1 0.00 0.00 0.00 61 1011.5
20260508010324 14 332 8.0 16.1 0.00 0.00 0.00 60 1011.5
20260508010243 14 335 8.0 16.1 0.00 0.00 0.00 60 1011.5
20260508010214 14 332 11.3 16.1 0.00 0.00 0.00 60 1011.5
20260508010049 14 332 6.4 12.9 0.00 0.00 0.00 60 1011.5
20260508005929 14 330 8.0 12.9 0.00 0.00 0.00 61 1011.5
20260508005828 14 330 4.8 12.9 0.00 0.00 0.00 62 1011.6
20260508005726 14 337 6.4 12.9 0.00 0.00 0.00 62 1011.6
20260508005628 14 332 8.0 12.9 0.00 0.00 0.00 62 1011.6
20260508005531 14 326 6.4 12.9 0.00 0.00 0.00 62 1011.6
20260508005454 14 333 9.7 12.9 0.00 0.00 0.00 62 1011.6
20260508005331 14 330 3.2 12.9 0.00 0.00 0.00 61 1011.6
20260508005253 14 332 4.8 12.9 0.00 0.00 0.00 62 1011.6
20260508005131 14 332 6.4 12.9 0.00 0.00 0.00 62 1011.6
20260508005029 14 332 4.8 12.9 0.00 0.00 0.00 62 1011.6
20260508004929 14 333 8.0 12.9 0.00 0.00 0.00 61 1011.6
20260508004831 14 332 9.7 12.9 0.00 0.00 0.00 63 1011.6
20260508004802 14 332 8.0 12.9 0.00 0.00 0.00 63 1011.6
20260508004651 14 330 8.0 12.9 0.00 0.00 0.00 63 1011.6
20260508004529 15 332 6.4 11.3 0.00 0.00 0.00 63 1011.6
20260508004447 15 332 3.2 11.3 0.00 0.00 0.00 63 1011.6
20260508004405 15 332 6.4 11.3 0.00 0.00 0.00 63 1011.6
20260508004242 15 332 3.2 11.3 0.00 0.00 0.00 63 1011.6
20260508004202 15 332 6.4 11.3 0.00 0.00 0.00 63 1011.6
20260508004040 15 333 6.4 11.3 0.00 0.00 0.00 63 1011.6
20260508003943 15 332 4.8 11.3 0.00 0.00 0.00 64 1011.6
20260508003902 15 332 6.4 11.3 0.00 0.00 0.00 65 1011.6
20260508003739 15 332 6.4 11.3 0.00 0.00 0.00 64 1011.6
20260508003636 15 326 6.4 11.3 0.00 0.00 0.00 63 1011.6
20260508003535 15 335 6.4 11.3 0.00 0.00 0.00 63 1011.6
20260508003433 15 332 8.0 11.3 0.00 0.00 0.00 63 1011.6
20260508003331 15 326 6.4 11.3 0.00 0.00 0.00 63 1011.6
20260508003234 15 330 6.4 11.3 0.00 0.00 0.00 64 1011.6
20260508003205 15 332 4.8 11.3 0.00 0.00 0.00 64 1011.6
20260508003042 15 332 4.8 11.3 0.00 0.00 0.00 64 1011.6
20260508002939 15 330 4.8 11.3 0.00 0.00 0.00 64 1011.6
20260508002837 15 326 3.2 11.3 0.00 0.00 0.00 64 1011.2
20260508002736 15 332 6.4 11.3 0.00 0.00 0.00 64 1011.2
20260508002634 15 332 6.4 11.3 0.00 0.00 0.00 63 1011.2
20260508002553 15 332 9.7 11.3 0.00 0.00 0.00 63 1011.2
20260508002434 15 330 6.4 12.9 0.00 0.00 0.00 62 1011.2
20260508002333 15 332 4.8 12.9 0.00 0.00 0.00 62 1011.2
20260508002231 15 330 6.4 12.9 0.00 0.00 0.00 62 1011.2
20260508002130 15 332 4.8 12.9 0.00 0.00 0.00 62 1011.2
20260508002028 15 330 8.0 12.9 0.00 0.00 0.00 62 1011.2
20260508001926 15 332 4.8 12.9 0.00 0.00 0.00 62 1011.2
20260508001830 15 325 6.4 12.9 0.00 0.00 0.00 62 1011.2
20260508001739 15 330 8.0 12.9 0.00 0.00 0.00 61 1011.2
20260508001648 15 333 8.0 12.9 0.00 0.00 0.00 61 1011.2
20260508001526 15 322 6.4 12.9 0.00 0.00 0.00 62 1011.2
20260508001424 15 330 6.4 12.9 0.00 0.00 0.00 62 1011.2
20260508001342 15 332 8.0 12.9 0.00 0.00 0.00 62 1011.0
20260508001240 15 332 6.4 12.9 0.00 0.00 0.00 61 1011.0
20260508001138 15 332 8.0 12.9 0.00 0.00 0.00 62 1011.0
20260508001101 15 328 8.0 12.9 0.00 0.00 0.00 63 1011.0
20260508000939 15 332 9.7 12.9 0.00 0.00 0.00 62 1011.0
20260508000837 15 335 6.4 12.9 0.00 0.00 0.00 63 1011.0
20260508000735 15 332 6.4 12.9 0.00 0.00 0.00 62 1011.0
20260508000633 15 330 4.8 12.9 0.00 0.00 0.00 62 1011.0
20260508000533 15 332 4.8 12.9 0.00 0.00 0.00 61 1011.0
20260508000452 15 330 4.8 12.9 0.00 0.00 0.00 62 1011.0
20260508000334 15 332 6.4 12.9 0.00 0.00 0.00 62 1011.0
20260508000234 15 332 4.8 12.9 0.00 0.00 0.00 62 1011.0
20260508000205 15 330 6.4 12.9 0.00 0.00 0.00 62 1011.0
20260508000041 15 329 6.4 11.3 0.00 0.00 0.00 62 1011.0
20260507235940 15 329 9.7 11.3 0.00 0.00 0.00 62 1011.0
20260507235858 15 332 4.8 11.3 0.00 0.00 0.00 62 1011.0
20260507235736 15 330 4.8 12.9 0.00 0.00 0.00 62 1011.0
20260507235633 15 329 4.8 12.9 0.00 0.00 0.00 62 1011.0
20260507235536 15 332 6.4 12.9 0.00 0.00 0.00 62 1011.0
20260507235439 15 333 8.0 12.9 0.00 0.00 0.00 62 1011.0
20260507235337 15 329 6.4 12.9 0.00 0.00 0.00 62 1011.0
20260507235235 15 323 6.4 12.9 0.00 0.00 0.00 62 1011.0
20260507235133 15 329 6.4 12.9 0.00 0.00 0.00 61 1011.0
20260507235030 15 332 6.4 12.9 0.00 0.00 0.00 61 1011.0
20260507234929 15 330 8.0 12.9 0.00 0.00 0.00 62 1011.0
20260507234832 15 329 6.4 9.7 0.00 0.00 0.00 61 1011.0
20260507234740 15 330 6.4 9.7 0.00 0.00 0.00 62 1011.0
20260507234648 15 323 6.4 9.7 0.00 0.00 0.00 63 1011.0
20260507234527 15 320 3.2 9.7 0.00 0.00 0.00 62 1011.0
20260507234447 15 328 4.8 11.3 0.00 0.00 0.00 62 1011.0
20260507234325 15 329 6.4 11.3 0.00 0.00 0.00 61 1010.9
20260507234244 15 328 6.4 11.3 0.00 0.00 0.00 61 1010.9
20260507234204 15 333 4.8 11.3 0.00 0.00 0.00 62 1010.9
20260507234045 15 332 6.4 11.3 0.00 0.00 0.00 63 1010.9
20260507233943 15 330 3.2 11.3 0.00 0.00 0.00 64 1010.9
20260507233841 15 325 4.8 11.3 0.00 0.00 0.00 63 1010.9
20260507233739 15 328 8.0 11.3 0.00 0.00 0.00 63 1010.9
20260507233636 15 330 9.7 11.3 0.00 0.00 0.00 62 1010.9
20260507233554 15 323 6.4 11.3 0.00 0.00 0.00 62 1010.9
20260507233431 15 329 6.4 11.3 0.00 0.00 0.00 62 1010.9
20260507233329 15 335 9.7 11.3 0.00 0.00 0.00 64 1010.9
20260507233238 15 328 6.4 12.9 0.00 0.00 0.00 63 1010.9
20260507233152 15 343 3.2 12.9 0.00 0.00 0.00 63 1010.9
20260507233048 15 328 3.2 12.9 0.00 0.00 0.00 63 1010.9
20260507232946 15 337 6.4 12.9 0.00 0.00 0.00 63 1010.9
20260507232904 15 328 4.8 12.9 0.00 0.00 0.00 63 1010.9
20260507232742 15 328 4.8 12.9 0.00 0.00 0.00 63 1010.9
20260507232659 15 330 4.8 12.9 0.00 0.00 0.00 62 1010.9
20260507232537 15 330 4.8 12.9 0.00 0.00 0.00 62 1010.9
20260507232456 16 330 8.0 12.9 0.00 0.00 0.00 62 1010.9
20260507232333 16 329 1.6 12.9 0.00 0.00 0.00 63 1010.9
20260507232253 16 339 4.8 12.9 0.00 0.00 0.00 61 1010.9
20260507232135 16 325 8.0 14.5 0.00 0.00 0.00 61 1010.9
20260507232032 16 330 4.8 14.5 0.00 0.00 0.00 60 1010.9
20260507231932 16 337 4.8 14.5 0.00 0.00 0.00 62 1010.9
20260507231831 16 335 9.7 14.5 0.00 0.00 0.00 62 1010.9
20260507231729 16 330 3.2 14.5 0.00 0.00 0.00 61 1010.9
20260507231659 16 332 6.4 14.5 0.00 0.00 0.00 61 1010.9
20260507231537 16 340 8.0 14.5 0.00 0.00 0.00 62 1010.9
20260507231438 16 322 6.4 14.5 0.00 0.00 0.00 62 1010.9
20260507231337 16 326 6.4 14.5 0.00 0.00 0.00 62 1010.8
20260507231236 16 333 9.7 14.5 0.00 0.00 0.00 62 1010.8
20260507231134 16 330 6.4 14.5 0.00 0.00 0.00 62 1010.8
20260507231033 16 330 6.4 14.5 0.00 0.00 0.00 62 1010.8
20260507230930 16 330 4.8 14.5 0.00 0.00 0.00 62 1010.8
20260507230849 16 330 6.4 14.5 0.00 0.00 0.00 62 1010.8
20260507230730 16 332 8.0 16.1 0.00 0.00 0.00 62 1010.8
20260507230628 16 329 4.8 17.7 0.00 0.00 0.00 62 1010.8
20260507230528 16 329 6.4 17.7 0.00 0.00 0.00 63 1010.8
20260507230430 16 328 4.8 17.7 0.00 0.00 0.00 63 1010.8
20260507230329 16 350 8.0 17.7 0.00 0.00 0.00 62 1010.8
20260507230238 16 330 4.8 17.7 0.00 0.00 0.00 62 1010.8
20260507230148 16 332 6.4 17.7 0.00 0.00 0.00 62 1010.8
20260507230028 16 328 9.7 17.7 0.00 0.00 0.00 62 1010.8
20260507225927 16 330 6.4 17.7 0.00 0.00 0.00 63 1010.8
20260507225827 16 330 8.0 17.7 0.00 0.00 0.00 62 1010.9
20260507225745 16 329 3.2 14.5 0.00 0.00 0.00 62 1010.9
20260507225704 16 343 3.2 14.5 0.00 0.00 0.00 62 1010.9
20260507225602 16 328 3.2 14.5 0.00 0.00 0.00 62 1010.9
20260507225500 16 325 6.4 14.5 0.00 0.00 0.00 62 1010.9
20260507225337 16 328 3.2 14.5 0.00 0.00 0.00 62 1010.9
20260507225234 16 329 6.4 14.5 0.00 0.00 0.00 63 1010.9
20260507225136 16 320 6.4 14.5 0.00 0.00 0.00 63 1010.9
20260507225054 16 326 8.0 14.5 0.00 0.00 0.00 63 1010.9
20260507224931 16 330 9.7 14.5 0.00 0.00 0.00 62 1010.9
20260507224829 16 330 8.0 12.9 0.00 0.00 0.00 62 1010.9
20260507224738 16 332 8.0 12.9 0.00 0.00 0.00 63 1010.9
20260507224648 16 320 6.4 12.9 0.00 0.00 0.00 62 1010.9
20260507224526 16 332 3.2 9.7 0.00 0.00 0.00 63 1010.9
20260507224424 16 330 1.6 11.3 0.00 0.00 0.00 62 1010.9
20260507224326 16 329 3.2 11.3 0.00 0.00 0.00 62 1010.8
20260507224225 16 328 4.8 11.3 0.00 0.00 0.00 62 1010.8
20260507224143 16 329 4.8 11.3 0.00 0.00 0.00 63 1010.8
20260507224042 16 326 8.0 11.3 0.00 0.00 0.00 63 1010.8
20260507223941 16 326 4.8 12.9 0.00 0.00 0.00 62 1010.8
20260507223858 16 330 1.6 12.9 0.00 0.00 0.00 62 1010.8
20260507223736 16 336 4.8 12.9 0.00 0.00 0.00 63 1010.8
20260507223634 16 330 9.7 12.9 0.00 0.00 0.00 62 1010.8
20260507223536 16 329 3.2 12.9 0.00 0.00 0.00 62 1010.8
20260507223435 16 339 1.6 12.9 0.00 0.00 0.00 61 1010.8
20260507223333 16 332 3.2 12.9 0.00 0.00 0.00 61 1010.8
20260507223251 16 330 6.4 12.9 0.00 0.00 0.00 61 1010.8
20260507223222 16 349 8.0 12.9 0.00 0.00 0.00 61 1010.8
20260507223037 16 328 4.8 12.9 0.00 0.00 0.00 61 1010.8
20260507222936 16 330 3.2 11.3 0.00 0.00 0.00 60 1010.8
20260507222836 16 329 6.4 11.3 0.00 0.00 0.00 61 1010.8
20260507222740 16 344 6.4 12.9 0.00 0.00 0.00 60 1010.8
20260507222659 16 342 4.8 12.9 0.00 0.00 0.00 61 1010.8
20260507222536 16 322 1.6 12.9 0.00 0.00 0.00 60 1010.8
20260507222435 16 332 4.8 17.7 0.00 0.00 0.00 60 1010.8
20260507222333 16 332 4.8 17.7 0.00 0.00 0.00 61 1010.8
20260507222251 16 330 6.4 17.7 0.00 0.00 0.00 62 1010.8
20260507222149 16 339 4.8 17.7 0.00 0.00 0.00 61 1010.8
20260507222025 16 328 6.4 17.7 0.00 0.00 0.00 61 1010.8
20260507221928 16 326 6.4 17.7 0.00 0.00 0.00 61 1010.8
20260507221827 16 328 4.8 17.7 0.00 0.00 0.00 62 1010.8
20260507221745 16 332 4.8 17.7 0.00 0.00 0.00 63 1010.8
20260507221654 16 330 8.0 17.7 0.00 0.00 0.00 63 1010.8
20260507221533 16 333 4.8 17.7 0.00 0.00 0.00 64 1010.8
20260507221431 16 330 4.8 17.7 0.00 0.00 0.00 63 1010.8
20260507221331 16 330 1.6 17.7 0.00 0.00 0.00 61 1010.7
20260507221228 16 329 3.2 17.7 0.00 0.00 0.00 62 1010.7
20260507221131 16 330 4.8 17.7 0.00 0.00 0.00 60 1010.7
20260507221029 16 330 6.4 17.7 0.00 0.00 0.00 60 1010.7
20260507220927 16 330 11.3 22.5 0.00 0.00 0.00 61 1010.7
20260507220825 16 330 11.3 22.5 0.00 0.00 0.00 62 1010.7
20260507220724 16 329 11.3 22.5 0.00 0.00 0.00 60 1010.7
20260507220643 16 328 9.7 22.5 0.00 0.00 0.00 59 1010.7
20260507220541 16 326 6.4 22.5 0.00 0.00 0.00 61 1010.7
20260507220443 16 325 6.4 22.5 0.00 0.00 0.00 61 1010.7
20260507220343 16 323 6.4 22.5 0.00 0.00 0.00 62 1010.7
20260507220224 16 328 11.3 22.5 0.00 0.00 0.00 62 1010.7
20260507220156 16 329 14.5 22.5 0.00 0.00 0.00 62 1010.7
20260507220031 16 330 8.0 22.5 0.00 0.00 0.00 61 1010.7
20260507215931 16 329 6.4 22.5 0.00 0.00 0.00 61 1010.7
20260507215830 16 326 9.7 22.5 0.00 0.00 0.00 60 1010.5
20260507215734 16 336 11.3 22.5 0.00 0.00 0.00 61 1010.5
20260507215632 16 349 9.7 22.5 0.00 0.00 0.00 61 1010.5
20260507215530 16 330 17.7 22.5 0.00 0.00 0.00 62 1010.5
20260507215428 16 328 6.4 22.5 0.00 0.00 0.00 62 1010.5
20260507215330 16 333 4.8 22.5 0.00 0.00 0.00 61 1010.5
20260507215229 16 325 4.8 22.5 0.00 0.00 0.00 61 1010.5
20260507215128 16 332 3.2 22.5 0.00 0.00 0.00 60 1010.5
20260507215031 16 326 0.0 22.5 0.00 0.00 0.00 59 1010.5
20260507214930 16 326 8.0 22.5 0.00 0.00 0.00 61 1010.5
20260507214829 16 325 11.3 22.5 0.00 0.00 0.00 61 1010.5
20260507214727 16 322 16.1 22.5 0.00 0.00 0.00 61 1010.5
20260507214657 16 328 14.5 22.5 0.00 0.00 0.00 61 1010.5
20260507214556 16 329 8.0 17.7 0.00 0.00 0.00 60 1010.5
20260507214434 16 330 6.4 17.7 0.00 0.00 0.00 61 1010.5
20260507214336 16 333 6.4 17.7 0.00 0.00 0.00 62 1010.7
20260507214237 16 330 9.7 17.7 0.00 0.00 0.00 63 1010.7
20260507214137 16 318 4.8 17.7 0.00 0.00 0.00 61 1010.7
20260507214034 16 320 6.4 17.7 0.00 0.00 0.00 61 1010.7
20260507213935 16 330 9.7 17.7 0.00 0.00 0.00 61 1010.7
20260507213854 16 329 9.7 17.7 0.00 0.00 0.00 62 1010.7
20260507213733 16 328 14.5 17.7 0.00 0.00 0.00 61 1010.7
20260507213635 16 330 8.0 17.7 0.00 0.00 0.00 63 1010.7
20260507213533 16 277 11.3 17.7 0.00 0.00 0.00 62 1010.7
20260507213432 16 42 3.2 14.5 0.00 0.00 0.00 62 1010.7
20260507213330 16 192 3.2 14.5 0.00 0.00 0.00 61 1010.7
20260507213238 16 330 8.0 14.5 0.00 0.00 0.00 61 1010.7
20260507213149 16 330 3.2 14.5 0.00 0.00 0.00 61 1010.7
20260507213026 16 112 3.2 14.5 0.00 0.00 0.00 62 1010.7
20260507212930 16 213 8.0 14.5 0.00 0.00 0.00 61 1010.7
20260507212848 16 330 8.0 14.5 0.00 0.00 0.00 61 1010.6
20260507212744 16 332 9.7 14.5 0.00 0.00 0.00 61 1010.6
20260507212703 16 332 11.3 14.5 0.00 0.00 0.00 62 1010.6
20260507212539 16 332 8.0 14.5 0.00 0.00 0.00 61 1010.6
20260507212429 16 330 4.8 12.9 0.00 0.00 0.00 61 1010.6
20260507212325 16 332 6.4 17.7 0.00 0.00 0.00 63 1010.6
20260507212242 16 332 6.4 17.7 0.00 0.00 0.00 63 1010.6
20260507212201 16 332 3.2 17.7 0.00 0.00 0.00 61 1010.6
20260507212058 16 318 4.8 17.7 0.00 0.00 0.00 61 1010.6
20260507211954 16 326 6.4 17.7 0.00 0.00 0.00 63 1010.6
20260507211850 16 329 4.8 17.7 0.00 0.00 0.00 62 1010.6
20260507211751 16 322 8.0 17.7 0.00 0.00 0.00 61 1010.6
20260507211700 16 336 6.4 17.7 0.00 0.00 0.00 62 1010.6
20260507211535 16 325 8.0 17.7 0.00 0.00 0.00 63 1010.6
20260507211431 16 326 12.9 20.9 0.00 0.00 0.00 63 1010.6
20260507211327 16 319 8.0 20.9 0.00 0.00 0.00 64 1010.7
20260507211246 16 333 11.3 20.9 0.00 0.00 0.00 62 1010.7
20260507211143 16 329 11.3 20.9 0.00 0.00 0.00 62 1010.7
20260507211041 16 330 11.3 20.9 0.00 0.00 0.00 65 1010.7
20260507210936 16 326 9.7 20.9 0.00 0.00 0.00 64 1010.7
20260507210833 16 328 6.4 20.9 0.00 0.00 0.00 64 1010.7
20260507210731 16 121 4.8 20.9 0.00 0.00 0.00 63 1010.7
20260507210629 16 330 8.0 20.9 0.00 0.00 0.00 65 1010.7
20260507210525 16 335 6.4 20.9 0.00 0.00 0.00 65 1010.7
20260507210443 16 330 8.0 19.3 0.00 0.00 0.00 63 1010.7
20260507210340 16 330 8.0 19.3 0.00 0.00 0.00 63 1010.7
20260507210300 16 330 9.7 19.3 0.00 0.00 0.00 64 1010.7
20260507210208 16 332 6.4 19.3 0.00 0.00 0.00 63 1010.7
20260507210043 16 330 6.4 19.3 0.00 0.00 0.00 63 1010.7
20260507205941 16 330 8.0 19.3 0.00 0.00 0.00 63 1010.7
20260507205836 16 330 12.9 19.3 0.00 0.00 0.00 63 1010.6
20260507205731 16 337 14.5 20.9 0.00 0.00 0.00 64 1010.6
20260507205629 16 332 6.4 20.9 0.00 0.00 0.00 62 1010.6
20260507205530 16 332 8.0 20.9 0.00 0.00 0.00 64 1010.6
20260507205426 16 325 8.0 20.9 0.00 0.00 0.00 64 1010.6
20260507205344 16 330 8.0 20.9 0.00 0.00 0.00 64 1010.6
20260507205241 16 330 12.9 20.9 0.00 0.00 0.00 65 1010.6
20260507205136 16 328 14.5 20.9 0.00 0.00 0.00 63 1010.6
20260507205035 16 337 12.9 20.9 0.00 0.00 0.00 62 1010.6
20260507204931 16 323 12.9 20.9 0.00 0.00 0.00 62 1010.6
20260507204833 16 339 12.9 19.3 0.00 0.00 0.00 62 1010.6
20260507204750 16 337 8.0 19.3 0.00 0.00 0.00 63 1010.6
20260507204720 16 328 3.2 19.3 0.00 0.00 0.00 65 1010.6
20260507204541 16 326 4.8 17.7 0.00 0.00 0.00 63 1010.6
20260507204440 16 330 6.4 17.7 0.00 0.00 0.00 63 1010.6
20260507204339 16 343 6.4 17.7 0.00 0.00 0.00 63 1010.7
20260507204237 16 319 8.0 17.7 0.00 0.00 0.00 63 1010.7
20260507204136 16 354 8.0 17.7 0.00 0.00 0.00 63 1010.7
20260507204054 16 330 6.4 17.7 0.00 0.00 0.00 64 1010.7
20260507203936 16 328 4.8 17.7 0.00 0.00 0.00 65 1010.7
20260507203839 16 322 9.7 17.7 0.00 0.00 0.00 65 1010.7
20260507203737 16 328 12.9 17.7 0.00 0.00 0.00 63 1010.7
20260507203635 16 326 9.7 17.7 0.00 0.00 0.00 65 1010.7
20260507203554 16 343 4.8 17.7 0.00 0.00 0.00 64 1010.7
20260507203430 16 330 4.8 17.7 0.00 0.00 0.00 64 1010.7
20260507203329 16 315 1.6 17.7 0.00 0.00 0.00 66 1010.7
20260507203228 16 330 8.0 17.7 0.00 0.00 0.00 65 1010.7
20260507203158 16 328 9.7 17.7 0.00 0.00 0.00 65 1010.7
20260507203101 16 330 9.7 17.7 0.00 0.00 0.00 66 1010.7
20260507202938 16 320 11.3 17.7 0.00 0.00 0.00 66 1010.7
20260507202837 16 325 11.3 16.1 0.00 0.00 0.00 65 1010.7
20260507202755 16 360 11.3 16.1 0.00 0.00 0.00 66 1010.7
20260507202632 16 328 6.4 12.9 0.00 0.00 0.00 67 1010.7
20260507202531 16 330 9.7 12.9 0.00 0.00 0.00 66 1010.7
20260507202431 16 349 6.4 14.5 0.00 0.00 0.00 65 1010.7
20260507202335 16 343 1.6 14.5 0.00 0.00 0.00 67 1010.7
20260507202234 16 337 3.2 14.5 0.00 0.00 0.00 68 1010.7
20260507202132 16 316 6.4 16.1 0.00 0.00 0.00 66 1010.7
20260507202031 16 330 6.4 16.1 0.00 0.00 0.00 66 1010.7
20260507201930 16 330 4.8 16.1 0.00 0.00 0.00 67 1010.7
20260507201828 16 330 4.8 16.1 0.00 0.00 0.00 68 1010.7
20260507201727 16 328 6.4 19.3 0.00 0.00 0.00 66 1010.7
20260507201659 16 326 9.7 19.3 0.00 0.00 0.00 66 1010.7
20260507201538 16 330 9.7 19.3 0.00 0.00 0.00 67 1010.7
20260507201436 16 322 11.3 19.3 0.00 0.00 0.00 66 1010.7
20260507201335 16 325 11.3 19.3 0.00 0.00 0.00 66 1010.4
20260507201233 16 330 8.0 19.3 0.00 0.00 0.00 66 1010.4
20260507201132 16 292 6.4 20.9 0.00 0.00 0.00 67 1010.4
20260507201030 16 330 8.0 20.9 0.00 0.00 0.00 65 1010.4
20260507200932 16 329 9.7 20.9 0.00 0.00 0.00 66 1010.4
20260507200830 16 330 8.0 20.9 0.00 0.00 0.00 65 1010.4
20260507200729 16 330 11.3 20.9 0.00 0.00 0.00 66 1010.4
20260507200627 16 332 6.4 20.9 0.00 0.00 0.00 65 1010.4
20260507200527 16 330 6.4 20.9 0.00 0.00 0.00 64 1010.4
20260507200426 16 294 12.9 20.9 0.00 0.00 0.00 63 1010.4
20260507200328 16 330 12.9 20.9 0.00 0.00 0.00 63 1010.4
20260507200238 16 329 11.3 25.7 0.00 0.00 0.00 65 1010.4
20260507200148 16 326 4.8 25.7 0.00 0.00 0.00 65 1010.4
20260507200044 16 330 9.7 25.7 0.00 0.00 0.00 64 1010.4
20260507195940 16 328 9.7 25.7 0.00 0.00 0.00 65 1010.4
20260507195839 16 326 3.2 25.7 0.00 0.00 0.00 66 1010.7
20260507195737 16 330 6.4 25.7 0.00 0.00 0.00 64 1010.7
20260507195635 16 333 14.5 25.7 0.00 0.00 0.00 63 1010.7
20260507195533 16 329 12.9 25.7 0.00 0.00 0.00 64 1010.7
20260507195436 16 329 14.5 25.7 0.00 0.00 0.00 67 1010.7
20260507195335 16 328 3.2 14.5 0.00 0.00 0.00 67 1010.7
20260507195234 16 323 4.8 14.5 0.00 0.00 0.00 66 1010.7
20260507195133 16 335 4.8 16.1 0.00 0.00 0.00 67 1010.7
20260507195032 16 326 8.0 19.3 0.00 0.00 0.00 67 1010.7
20260507194930 16 323 1.6 19.3 0.00 0.00 0.00 66 1010.7
20260507194833 16 330 6.4 19.3 0.00 0.00 0.00 66 1010.7
20260507194731 16 329 3.2 22.5 0.00 0.00 0.00 66 1010.7
20260507194702 16 329 1.6 22.5 0.00 0.00 0.00 66 1010.7
20260507194540 16 147 4.8 22.5 0.00 0.00 0.00 65 1010.7
20260507194439 16 49 8.0 22.5 0.00 0.00 0.00 64 1010.7
20260507194337 16 301 8.0 22.5 0.00 0.00 0.00 65 1010.6
20260507194235 16 326 14.5 22.5 0.00 0.00 0.00 63 1010.6
20260507194139 16 336 11.3 22.5 0.00 0.00 0.00 65 1010.6
20260507194037 16 337 9.7 22.5 0.00 0.00 0.00 65 1010.6
20260507193936 16 328 11.3 22.5 0.00 0.00 0.00 66 1010.6
20260507193835 16 330 0.0 19.3 0.00 0.00 0.00 65 1010.6
20260507193733 16 336 8.0 19.3 0.00 0.00 0.00 65 1010.6
20260507193631 16 340 8.0 19.3 0.00 0.00 0.00 63 1010.6
20260507193530 16 329 9.7 19.3 0.00 0.00 0.00 64 1010.6
20260507193432 16 326 14.5 19.3 0.00 0.00 0.00 65 1010.6
20260507193331 16 350 9.7 19.3 0.00 0.00 0.00 64 1010.6
20260507193249 16 326 12.9 19.3 0.00 0.00 0.00 66 1010.6
20260507193158 16 322 6.4 19.3 0.00 0.00 0.00 66 1010.6
20260507193034 16 344 8.0 19.3 0.00 0.00 0.00 64 1010.6
20260507192933 16 330 4.8 19.3 0.00 0.00 0.00 63 1010.6
20260507192833 16 346 4.8 19.3 0.00 0.00 0.00 62 1010.5
20260507192737 16 347 6.4 19.3 0.00 0.00 0.00 65 1010.5
20260507192655 16 347 11.3 19.3 0.00 0.00 0.00 63 1010.5
20260507192535 16 339 12.9 19.3 0.00 0.00 0.00 65 1010.5
20260507192434 16 322 9.7 19.3 0.00 0.00 0.00 64 1010.5
20260507192332 16 333 8.0 19.3 0.00 0.00 0.00 65 1010.5
20260507192230 16 346 9.7 19.3 0.00 0.00 0.00 64 1010.5
20260507192129 16 346 9.7 19.3 0.00 0.00 0.00 65 1010.5
20260507192032 16 208 11.3 19.3 0.00 0.00 0.00 65 1010.5
20260507191950 16 263 11.3 17.7 0.00 0.00 0.00 65 1010.5
20260507191827 16 330 12.9 17.7 0.00 0.00 0.00 66 1010.5
20260507191737 16 325 4.8 17.7 0.00 0.00 0.00 67 1010.5
20260507191647 16 328 3.2 22.5 0.00 0.00 0.00 65 1010.5
20260507191525 16 328 3.2 22.5 0.00 0.00 0.00 65 1010.5
20260507191424 15 328 4.8 22.5 0.00 0.00 0.00 66 1010.5
20260507191342 15 330 3.2 22.5 0.00 0.00 0.00 66 1010.5
20260507191224 15 326 11.3 22.5 0.00 0.00 0.00 64 1010.5
20260507191142 15 326 4.8 22.5 0.00 0.00 0.00 64 1010.5
20260507191041 15 360 8.0 22.5 0.00 0.00 0.00 65 1010.5
20260507190940 15 349 6.4 22.5 0.00 0.00 0.00 64 1010.5
20260507190838 15 268 9.7 22.5 0.00 0.00 0.00 65 1010.5
20260507190756 15 328 14.5 22.5 0.00 0.00 0.00 66 1010.5
20260507190654 15 319 6.4 20.9 0.00 0.00 0.00 63 1010.5
20260507190531 15 320 12.9 20.9 0.00 0.00 0.00 64 1010.5
20260507190433 15 325 14.5 20.9 0.00 0.00 0.00 65 1010.5
20260507190352 15 322 11.3 20.9 0.00 0.00 0.00 65 1010.5
20260507190229 15 329 11.3 19.3 0.00 0.00 0.00 67 1010.5
20260507190159 15 330 8.0 19.3 0.00 0.00 0.00 67 1010.5
20260507190057 15 339 4.8 19.3 0.00 0.00 0.00 67 1010.5
20260507185955 15 325 1.6 19.3 0.00 0.00 0.00 66 1010.5
20260507185831 15 325 6.4 19.3 0.00 0.00 0.00 67 1010.6
20260507185729 15 332 1.6 19.3 0.00 0.00 0.00 64 1010.6
20260507185633 15 337 4.8 19.3 0.00 0.00 0.00 64 1010.6
20260507185530 15 312 3.2 19.3 0.00 0.00 0.00 64 1010.6
20260507185428 15 329 6.4 19.3 0.00 0.00 0.00 64 1010.6
20260507185327 15 330 14.5 19.3 0.00 0.00 0.00 67 1010.6
20260507185226 15 328 11.3 19.3 0.00 0.00 0.00 67 1010.6
20260507185125 15 328 12.9 19.3 0.00 0.00 0.00 67 1010.6
20260507185043 15 330 11.3 19.3 0.00 0.00 0.00 65 1010.6
20260507184941 15 330 8.0 19.3 0.00 0.00 0.00 67 1010.6
20260507184842 15 330 6.4 19.3 0.00 0.00 0.00 66 1010.6
20260507184741 15 342 11.3 19.3 0.00 0.00 0.00 66 1010.6
20260507184712 15 329 12.9 19.3 0.00 0.00 0.00 68 1010.6
20260507184529 15 335 9.7 20.9 0.00 0.00 0.00 67 1010.6
20260507184426 15 329 9.7 20.9 0.00 0.00 0.00 67 1010.6
20260507184344 15 325 6.4 22.5 0.00 0.00 0.00 67 1010.6
20260507184242 15 325 6.4 22.5 0.00 0.00 0.00 68 1010.6
20260507184139 15 326 9.7 22.5 0.00 0.00 0.00 66 1010.6
20260507184038 15 328 9.7 22.5 0.00 0.00 0.00 67 1010.6
20260507183940 15 179 8.0 22.5 0.00 0.00 0.00 68 1010.6
20260507183838 15 326 8.0 22.5 0.00 0.00 0.00 68 1010.6
20260507183737 15 330 11.3 22.5 0.00 0.00 0.00 66 1010.6
20260507183635 15 329 8.0 22.5 0.00 0.00 0.00 69 1010.6
20260507183532 15 329 14.5 22.5 0.00 0.00 0.00 67 1010.6
20260507183431 15 329 3.2 17.7 0.00 0.00 0.00 67 1010.6
20260507183334 15 342 1.6 20.9 0.00 0.00 0.00 68 1010.6
20260507183232 15 330 1.6 20.9 0.00 0.00 0.00 69 1010.6
20260507183202 15 329 8.0 20.9 0.00 0.00 0.00 69 1010.6
20260507183038 15 349 9.7 20.9 0.00 0.00 0.00 66 1010.6
20260507182937 15 332 6.4 20.9 0.00 0.00 0.00 66 1010.6
20260507182836 15 330 11.3 20.9 0.00 0.00 0.00 67 1010.9
20260507182734 15 227 11.3 20.9 0.00 0.00 0.00 66 1010.9
20260507182631 15 298 12.9 20.9 0.00 0.00 0.00 67 1010.9
20260507182533 15 109 17.7 20.9 0.00 0.00 0.00 68 1010.9
20260507182430 15 14 11.3 19.3 0.00 0.00 0.00 69 1010.9
20260507182333 15 313 3.2 19.3 0.00 0.00 0.00 69 1010.9
20260507182252 15 359 8.0 19.3 0.00 0.00 0.00 69 1010.9
20260507182130 15 47 6.4 20.9 0.00 0.00 0.00 68 1010.9
20260507182029 15 61 6.4 20.9 0.00 0.00 0.00 70 1010.9
20260507181927 15 329 9.7 20.9 0.00 0.00 0.00 69 1010.9
20260507181826 15 330 9.7 20.9 0.00 0.00 0.00 68 1010.9
20260507181749 15 330 6.4 20.9 0.00 0.00 0.00 68 1010.9
20260507181658 15 289 6.4 20.9 0.00 0.00 0.00 68 1010.9
20260507181556 15 167 12.9 20.9 0.00 0.00 0.00 66 1010.9
20260507181433 15 311 11.3 20.9 0.00 0.00 0.00 69 1010.9
20260507181335 15 147 12.9 20.9 0.00 0.00 0.00 70 1010.9
20260507181233 15 326 12.9 20.9 0.00 0.00 0.00 69 1010.9
20260507181132 15 329 9.7 19.3 0.00 0.00 0.00 67 1010.9
20260507181031 15 343 6.4 19.3 0.00 0.00 0.00 67 1010.9
20260507180936 15 83 8.0 20.9 0.00 0.00 0.00 67 1010.9
20260507180853 15 335 9.7 20.9 0.00 0.00 0.00 66 1010.9
20260507180731 15 169 3.2 20.9 0.00 0.00 0.00 69 1010.9
20260507180630 15 323 8.0 20.9 0.00 0.00 0.00 70 1010.9
20260507180531 15 123 4.8 20.9 0.00 0.00 0.00 70 1010.9
20260507180450 15 267 11.3 20.9 0.00 0.00 0.00 70 1010.9
20260507180327 15 360 11.3 24.1 0.00 0.00 0.00 69 1010.9
20260507180245 15 344 12.9 24.1 0.00 0.00 0.00 69 1010.9
20260507180219 15 332 14.5 24.1 0.00 0.00 0.00 70 1010.9
20260507180034 15 350 3.2 24.1 0.00 0.00 0.00 71 1010.9
20260507175933 15 336 4.8 24.1 0.00 0.00 0.00 70 1010.9
20260507175832 15 329 6.4 24.1 0.00 0.00 0.00 69 1011.1
20260507175730 15 330 12.9 24.1 0.00 0.00 0.00 71 1011.1
20260507175628 15 329 9.7 24.1 0.00 0.00 0.00 69 1011.1
20260507175525 15 320 11.3 24.1 0.00 0.00 0.00 69 1011.1
20260507175428 15 330 6.4 22.5 0.00 0.00 0.00 69 1011.1
20260507175346 15 332 9.7 22.5 0.00 0.00 0.00 71 1011.1
20260507175307 15 326 12.9 22.5 0.00 0.00 0.00 70 1011.1
20260507175202 15 330 9.7 22.5 0.00 0.00 0.00 68 1011.1
20260507175039 15 71 8.0 22.5 0.00 0.00 0.00 68 1011.1
20260507174938 15 353 12.9 22.5 0.00 0.00 0.00 68 1011.1
20260507174836 15 329 16.1 25.7 0.00 0.00 0.00 69 1011.1
20260507174736 15 330 14.5 25.7 0.00 0.00 0.00 69 1011.1
20260507174713 15 82 16.1 25.7 0.00 0.00 0.00 69 1011.1
20260507174529 15 330 11.3 25.7 0.00 0.00 0.00 69 1011.1
20260507174447 15 182 8.0 25.7 0.00 0.00 0.00 68 1011.1
20260507174324 15 344 6.4 25.7 0.00 0.00 0.00 70 1011.3
20260507174224 15 162 9.7 25.7 0.00 0.00 0.00 71 1011.3
20260507174143 15 76 11.3 25.7 0.00 0.00 0.00 68 1011.3
20260507174042 15 18 16.1 25.7 0.00 0.00 0.00 70 1011.3
20260507173939 15 326 9.7 25.7 0.00 0.00 0.00 71 1011.3
20260507173842 15 328 14.5 19.3 0.00 0.00 0.00 70 1011.3
20260507173800 15 168 12.9 19.3 0.00 0.00 0.00 69 1011.3
20260507173636 15 347 3.2 17.7 0.00 0.00 0.00 69 1011.3
20260507173536 15 254 3.2 17.7 0.00 0.00 0.00 69 1011.3
20260507173454 15 222 6.4 17.7 0.00 0.00 0.00 69 1011.3
20260507173331 15 291 9.7 17.7 0.00 0.00 0.00 69 1011.3
20260507173240 15 175 11.3 17.7 0.00 0.00 0.00 69 1011.3
20260507173151 15 296 9.7 17.7 0.00 0.00 0.00 70 1011.3
20260507173027 15 116 4.8 17.7 0.00 0.00 0.00 72 1011.3
20260507172928 15 330 6.4 17.7 0.00 0.00 0.00 71 1011.3
20260507172847 15 333 11.3 19.3 0.00 0.00 0.00 70 1011.5
20260507172724 15 315 9.7 19.3 0.00 0.00 0.00 71 1011.5
20260507172642 15 330 4.8 19.3 0.00 0.00 0.00 71 1011.5
20260507172540 15 330 8.0 19.3 0.00 0.00 0.00 71 1011.5
20260507172439 15 330 4.8 19.3 0.00 0.00 0.00 71 1011.5
20260507172337 15 330 8.0 19.3 0.00 0.00 0.00 69 1011.5
20260507172255 15 130 9.7 19.3 0.00 0.00 0.00 70 1011.5
20260507172136 15 316 8.0 19.3 0.00 0.00 0.00 71 1011.5
20260507172055 15 244 12.9 19.3 0.00 0.00 0.00 72 1011.5
20260507171932 15 328 11.3 19.3 0.00 0.00 0.00 71 1011.5
20260507171829 14 330 4.8 19.3 0.00 0.00 0.00 71 1011.5
20260507171738 14 330 8.0 22.5 0.00 0.00 0.00 74 1011.5
20260507171648 14 353 12.9 22.5 0.00 0.00 0.00 72 1011.5
20260507171526 14 128 12.9 22.5 0.00 0.00 0.00 72 1011.5
20260507171446 14 330 11.3 22.5 0.00 0.00 0.00 72 1011.5
20260507171327 14 332 16.1 22.5 0.00 0.00 0.00 72 1011.3
20260507171245 14 217 11.3 22.5 0.00 0.00 0.00 72 1011.3
20260507171143 14 261 9.7 22.5 0.00 0.00 0.00 71 1011.3
20260507171041 14 27 12.9 22.5 0.00 0.00 0.00 71 1011.3
20260507170940 14 323 16.1 22.5 0.00 0.00 0.00 72 1011.3
20260507170857 14 295 16.1 22.5 0.00 0.00 0.00 73 1011.3
20260507170754 14 326 12.9 19.3 0.00 0.00 0.00 75 1011.3
20260507170632 14 326 8.0 19.3 0.00 0.00 0.00 75 1011.3
20260507170531 14 330 14.5 19.3 0.00 0.00 0.00 76 1011.3
20260507170433 14 329 9.7 19.3 0.00 0.00 0.00 77 1011.3
20260507170350 14 360 3.2 19.3 0.00 0.00 0.00 77 1011.3
20260507170240 14 332 3.2 25.7 0.00 0.00 0.00 76 1011.3
20260507170150 14 182 8.0 25.7 0.00 0.00 0.00 75 1011.3
20260507170026 14 337 12.9 25.7 0.00 0.00 0.00 74 1011.3
20260507165924 14 306 14.5 25.7 0.00 0.00 0.00 74 1011.3
20260507165842 14 330 12.9 25.7 0.00 0.00 0.00 75 1011.6
20260507165740 13 285 9.7 25.7 0.00 0.00 0.00 76 1011.6
20260507165642 13 174 8.0 25.7 0.00 0.00 0.00 76 1011.6
20260507165600 13 136 9.7 25.7 0.00 0.00 0.00 75 1011.6
20260507165458 13 329 12.9 25.7 0.00 0.00 0.00 77 1011.6
20260507165336 13 203 11.3 22.5 0.00 0.00 0.00 77 1011.6
20260507165233 13 272 9.7 22.5 0.00 0.00 0.00 78 1011.6
20260507165132 13 325 3.2 22.5 0.00 0.00 0.00 77 1011.6
20260507165030 13 343 9.7 25.7 0.00 0.00 0.00 76 1011.6
20260507164929 13 329 8.0 25.7 0.00 0.00 0.00 74 1011.6
20260507164831 13 296 17.7 30.6 0.00 0.00 0.00 76 1011.6
20260507164729 13 329 14.5 30.6 0.00 0.00 0.00 77 1011.6
20260507164659 13 332 11.3 30.6 0.00 0.00 0.00 77 1011.6
20260507164537 13 336 12.9 30.6 0.00 0.00 0.00 79 1011.6
20260507164437 13 333 14.5 30.6 0.00 0.00 0.00 78 1011.6
20260507164336 13 281 14.5 30.6 0.00 0.00 0.00 80 1011.6
20260507164235 13 268 12.9 30.6 0.00 0.00 0.00 79 1011.6
20260507164136 13 326 11.3 30.6 0.00 0.00 0.00 79 1011.6
20260507164035 13 346 14.5 30.6 0.00 0.00 0.00 78 1011.6
20260507163935 13 359 14.5 30.6 0.00 0.00 0.00 81 1011.6
20260507163833 13 329 8.0 27.4 0.00 0.00 0.00 82 1011.6
20260507163753 13 330 12.9 27.4 0.00 0.00 0.00 83 1011.6
20260507163630 13 330 8.0 27.4 0.00 0.00 0.00 82 1011.6
20260507163528 13 322 14.5 27.4 0.00 0.00 0.00 82 1011.6
20260507163433 13 333 20.9 27.4 0.00 0.00 0.00 84 1011.6
20260507163332 13 330 14.5 22.5 0.00 0.00 0.00 84 1011.6
20260507163233 13 234 16.1 22.5 0.00 0.00 0.00 83 1011.6
20260507163203 13 333 9.7 22.5 0.00 0.00 0.00 83 1011.6
20260507163041 13 313 8.0 22.5 0.00 0.00 0.00 83 1011.6
20260507162938 13 336 14.5 22.5 0.00 0.00 0.00 82 1011.6
20260507162837 13 38 14.5 20.9 0.00 0.00 0.00 83 1011.2
20260507162739 13 320 14.5 20.9 0.00 0.00 0.00 84 1011.2
20260507162658 13 158 12.9 20.9 0.00 0.00 0.00 84 1011.2
20260507162535 13 323 14.5 20.9 0.00 0.00 0.00 86 1011.2
20260507162454 13 328 8.0 20.9 0.00 0.00 0.00 87 1011.2
20260507162334 13 332 8.0 20.9 0.00 0.00 0.00 88 1011.2
20260507162233 13 126 6.4 20.9 0.00 0.00 0.00 89 1011.2
20260507162132 12 311 12.9 20.9 0.00 0.00 0.00 89 1011.2
20260507162051 12 306 12.9 20.9 0.00 0.00 0.00 89 1011.2
20260507161933 12 337 14.5 20.9 0.00 0.00 0.00 90 1011.2
20260507161831 12 330 11.3 20.9 0.00 0.00 0.00 90 1011.2
20260507161729 12 332 14.5 20.9 0.00 0.00 0.00 92 1011.2
20260507161700 12 329 12.9 25.7 0.00 0.00 0.00 92 1011.2
20260507161539 12 270 12.9 25.7 0.00 0.00 0.00 95 1011.2
20260507161436 12 299 12.9 25.7 0.00 0.00 0.00 96 1011.2
20260507161334 12 326 12.9 25.7 0.00 0.00 0.00 96 1011.3
20260507161238 12 92 12.9 25.7 0.00 0.00 0.00 97 1011.3
20260507161137 12 320 11.3 25.7 0.00 0.00 0.00 100 1011.3
20260507161036 12 178 12.9 25.7 0.00 0.00 0.00 100 1011.3
20260507160935 12 326 14.5 25.7 0.00 0.00 0.00 100 1011.3
20260507160833 12 227 16.1 25.7 0.00 0.00 0.00 100 1011.3
20260507160732 12 313 9.7 25.7 0.00 0.00 0.00 100 1011.3
20260507160630 12 82 12.9 29.0 0.00 0.00 0.00 100 1011.3
20260507160533 12 330 3.2 29.0 0.00 0.00 0.00 100 1011.3
20260507160432 12 191 8.0 29.0 0.00 0.00 0.00 100 1011.3
20260507160330 12 226 11.3 29.0 0.00 0.00 0.00 100 1011.3
20260507160229 12 99 14.5 29.0 0.00 0.00 0.00 100 1011.3
20260507160200 12 320 16.1 30.6 0.00 0.00 0.00 100 1011.3
20260507160037 12 257 16.1 30.6 0.00 0.00 0.00 100 1011.3
20260507155935 12 325 9.7 30.6 0.00 0.00 0.00 100 1011.3
20260507155837 12 332 16.1 32.2 0.00 0.00 0.00 100 1011.1
20260507155735 12 311 14.5 32.2 0.00 0.00 0.00 100 1011.1
20260507155634 11 295 11.3 32.2 0.00 0.00 0.00 100 1011.1
20260507155532 11 298 11.3 32.2 0.00 0.00 0.00 100 1011.1
20260507155430 11 253 16.1 32.2 0.00 0.00 0.00 100 1011.1
20260507155328 11 256 19.3 32.2 0.00 0.00 0.00 100 1011.1
20260507155226 11 136 11.3 33.8 0.00 0.00 0.00 100 1011.1
20260507155149 11 284 22.5 33.8 0.00 0.00 0.00 100 1011.1
20260507155029 11 320 24.1 33.8 0.00 0.00 0.00 100 1011.1
20260507154929 11 287 16.1 33.8 0.00 0.00 0.00 100 1011.1
20260507154827 11 176 19.3 33.8 0.00 0.00 0.00 100 1011.1
20260507154725 11 143 20.9 33.8 0.00 0.00 0.00 100 1011.1
20260507154658 11 319 17.7 33.8 0.00 0.00 0.00 100 1011.1
20260507154536 11 267 17.7 33.8 0.00 0.00 0.00 100 1011.1
20260507154439 11 319 22.5 33.8 0.00 0.00 0.00 100 1011.1
20260507154338 11 291 14.5 32.2 0.00 0.00 0.00 100 1011.2
20260507154236 11 272 20.9 32.2 0.00 0.00 0.00 100 1011.2
20260507154135 11 150 22.5 32.2 0.00 0.00 0.00 100 1011.2
20260507154033 11 323 17.7 32.2 0.00 0.00 0.00 100 1011.2
20260507153935 11 172 16.1 32.2 0.00 0.00 0.00 100 1011.2
20260507153834 11 272 20.9 32.2 0.00 0.00 0.00 100 1011.2
20260507153736 11 257 12.9 27.4 0.00 0.00 0.00 100 1011.2
20260507153655 11 320 8.0 27.4 0.00 0.00 0.00 100 1011.2
20260507153531 11 305 11.3 27.4 0.00 0.00 0.00 100 1011.2
20260507153450 11 205 11.3 27.4 0.00 0.00 0.00 100 1011.2
20260507153328 11 294 14.5 27.4 0.00 0.00 0.00 100 1011.2
20260507153237 11 305 16.1 27.4 0.00 0.00 0.00 100 1011.2
20260507153147 11 339 14.5 27.4 0.00 0.00 0.00 100 1011.2
20260507153024 11 329 11.3 27.4 0.00 0.00 0.00 100 1011.2
20260507152927 11 325 16.1 27.4 0.00 0.00 0.00 100 1011.2
20260507152826 11 304 17.7 25.7 0.00 0.00 0.00 100 1011.2
20260507152724 11 315 16.1 29.0 0.00 0.00 0.00 100 1011.2
20260507152643 11 306 17.7 29.0 0.00 0.00 0.00 100 1011.2
20260507152541 11 308 14.5 29.0 0.00 0.00 0.00 100 1011.2
20260507152440 11 217 16.1 29.0 0.00 0.00 0.00 100 1011.2
20260507152337 11 213 14.5 29.0 0.00 0.00 0.00 100 1011.2
20260507152240 11 329 12.9 29.0 0.00 0.00 0.00 100 1011.2
20260507152138 11 308 11.3 29.0 0.00 0.00 0.00 100 1011.2
20260507152036 11 320 17.7 29.0 0.00 0.00 0.00 100 1011.2
20260507151934 11 320 19.3 29.0 0.00 0.00 0.00 100 1011.2
20260507151833 11 315 8.0 29.0 0.00 0.00 0.00 100 1011.2
20260507151752 11 332 14.5 35.4 0.00 0.00 0.00 100 1011.2
20260507151721 11 328 14.5 35.4 0.00 0.00 0.00 100 1011.2
20260507151537 11 205 11.3 35.4 0.00 0.00 0.00 100 1011.2
20260507151440 11 299 11.3 35.4 0.00 0.00 0.00 100 1011.2
20260507151338 11 152 17.7 35.4 0.00 0.00 0.00 100 1011.2
20260507151300 11 312 12.9 35.4 0.00 0.00 0.00 100 1011.2
20260507151138 11 328 16.1 35.4 0.00 0.00 0.00 100 1011.2
20260507151056 11 322 19.3 35.4 0.00 0.00 0.00 100 1011.2
20260507150954 11 326 24.1 35.4 0.00 0.00 0.00 100 1011.2
20260507150831 11 329 14.5 27.4 0.00 0.00 0.00 100 1011.2
20260507150729 11 328 9.7 27.4 0.00 0.00 0.00 100 1011.2
20260507150632 11 299 6.4 27.4 0.00 0.00 0.00 100 1011.2
20260507150530 10 330 11.3 27.4 0.00 0.00 0.00 100 1011.2
20260507150427 10 336 14.5 27.4 0.00 0.00 0.00 100 1011.2
20260507150327 10 332 11.3 27.4 0.00 0.00 0.00 100 1011.2
20260507150237 10 332 17.7 27.4 0.00 0.00 0.00 100 1011.2
20260507150149 11 209 17.7 27.4 0.00 0.00 0.00 100 1011.2
20260507150025 10 289 19.3 25.7 0.00 0.00 0.00 100 1011.2
20260507145949 10 308 14.5 25.7 0.00 0.00 0.00 100 1011.2
20260507145826 10 306 19.3 30.6 0.00 0.00 0.00 100 1011.2
20260507145725 10 301 19.3 30.6 0.00 0.00 0.00 100 1011.2
20260507145624 10 313 9.7 30.6 0.00 0.00 0.00 100 1011.2
20260507145543 10 329 16.1 30.6 0.00 0.00 0.00 100 1011.2
20260507145440 10 298 17.7 30.6 0.00 0.00 0.00 100 1011.2
20260507145339 10 295 12.9 30.6 0.00 0.00 0.00 100 1011.2
20260507145241 10 316 12.9 30.6 0.00 0.00 0.00 100 1011.2
20260507145140 10 333 14.5 30.6 0.00 0.00 0.00 100 1011.2
20260507145037 10 246 17.7 30.6 0.00 0.00 0.00 100 1011.2
20260507144935 10 285 19.3 30.6 0.00 0.00 0.00 100 1011.2
20260507144834 10 240 20.9 30.6 0.00 0.00 0.00 100 1011.2
20260507144733 10 241 19.3 27.4 0.00 0.00 0.00 100 1011.2
20260507144702 10 278 19.3 25.7 0.00 0.00 0.00 100 1011.2
20260507144541 10 313 19.3 25.7 0.00 0.00 0.00 100 1011.2
20260507144443 10 288 19.3 24.1 0.00 0.00 0.00 100 1011.2
20260507144342 10 330 16.1 30.6 0.00 0.00 0.00 100 1011.1
20260507144241 10 220 12.9 32.2 0.00 0.00 0.00 100 1011.1
20260507144139 10 302 16.1 32.2 0.00 0.00 0.00 100 1011.1
20260507144038 10 294 14.5 32.2 0.00 0.00 0.00 100 1011.1
20260507143938 10 284 17.7 32.2 0.00 0.00 0.00 100 1011.1
20260507143857 10 309 12.9 32.2 0.00 0.00 0.00 100 1011.1
20260507143738 10 58 8.0 32.2 0.00 0.00 0.00 100 1011.1
20260507143637 10 332 11.3 32.2 0.00 0.00 0.00 100 1011.1
20260507143534 10 330 20.9 32.2 0.00 0.00 0.00 100 1011.1
20260507143433 10 236 24.1 32.2 0.00 0.00 0.00 100 1011.1
20260507143332 10 332 14.5 25.7 0.00 0.00 0.00 100 1011.1
20260507143251 10 289 14.5 25.7 0.00 0.00 0.00 100 1011.1
20260507143202 10 323 14.5 25.7 0.00 0.00 0.00 100 1011.1
20260507143039 10 333 16.1 25.7 0.00 0.00 0.00 100 1011.1
20260507142942 10 337 11.3 27.4 0.00 0.00 0.00 100 1011.1
20260507142841 10 330 14.5 27.4 0.00 0.00 0.00 100 1010.8
20260507142739 10 316 14.5 27.4 0.00 0.00 0.00 100 1010.8
20260507142637 10 330 11.3 27.4 0.00 0.00 0.00 100 1010.8
20260507142536 10 326 9.7 27.4 0.00 0.00 0.00 100 1010.8
20260507142454 10 320 8.0 27.4 0.00 0.00 0.00 100 1010.8
20260507142331 10 167 16.1 27.4 0.00 0.00 0.00 100 1010.8
20260507142234 10 328 16.1 27.4 0.00 0.00 0.00 100 1010.8
20260507142132 10 284 16.1 30.6 0.00 0.00 0.00 100 1010.8
20260507142032 10 295 11.3 30.6 0.00 0.00 0.00 100 1010.8
20260507141951 10 261 16.1 30.6 0.00 0.00 0.00 100 1010.8
20260507141828 10 296 14.5 30.6 0.00 0.00 0.00 100 1010.8
20260507141727 10 230 14.5 30.6 0.00 0.00 0.00 100 1010.8
20260507141656 10 333 14.5 30.6 0.00 0.00 0.00 100 1010.8
20260507141538 10 250 16.1 30.6 0.00 0.00 0.00 100 1010.8
20260507141435 10 322 19.3 30.6 0.00 0.00 0.00 100 1010.8
20260507141334 10 265 20.9 30.6 0.00 0.00 0.00 100 1010.7
20260507141233 10 318 12.9 30.6 0.00 0.00 0.00 100 1010.7
20260507141130 10 305 16.1 30.6 0.00 0.00 0.00 100 1010.7
20260507141029 10 248 16.1 30.6 0.00 0.00 0.00 100 1010.7
20260507140927 10 288 12.9 30.6 0.00 0.00 0.00 100 1010.7
20260507140830 10 291 14.5 30.6 0.00 0.00 0.00 100 1010.7
20260507140729 10 243 12.9 30.6 0.00 0.00 0.00 100 1010.7
20260507140628 10 333 14.5 30.6 0.00 0.00 0.00 100 1010.7
20260507140530 10 236 16.1 30.6 0.00 0.00 0.00 100 1010.7
20260507140428 10 193 20.9 30.6 0.00 0.00 0.00 100 1010.7
20260507140325 10 328 22.5 32.2 0.00 0.00 0.00 100 1010.7
20260507140227 10 301 11.3 32.2 0.00 0.00 0.00 100 1010.7
20260507140158 10 328 12.9 33.8 0.00 0.00 0.00 100 1010.7
20260507140038 10 270 19.3 33.8 0.00 0.00 0.00 100 1010.7
20260507135938 10 210 19.3 33.8 0.00 0.00 0.00 100 1010.7
20260507135836 10 326 19.3 33.8 0.00 0.00 0.00 100 1010.6
20260507135735 10 263 19.3 33.8 0.00 0.00 0.00 100 1010.6
20260507135632 10 224 17.7 33.8 0.00 0.00 0.00 100 1010.6
20260507135551 10 254 22.5 33.8 0.00 0.00 0.00 100 1010.6
20260507135432 10 220 24.1 33.8 0.00 0.00 0.00 100 1010.6
20260507135330 10 248 22.5 33.8 0.00 0.00 0.00 100 1010.6
20260507135232 10 282 14.5 33.8 0.00 0.00 0.00 100 1010.6
20260507135130 10 288 19.3 32.2 0.00 0.00 0.00 100 1010.6
20260507135029 10 295 20.9 32.2 0.00 0.00 0.00 100 1010.6
20260507134926 10 285 17.7 32.2 0.00 0.00 0.00 100 1010.6
20260507134825 10 304 22.5 32.2 0.00 0.00 0.00 100 1010.6
20260507134736 10 326 16.1 30.6 0.00 0.00 0.00 100 1010.6
20260507134646 10 333 17.7 30.6 0.00 0.00 0.00 100 1010.6
20260507134524 10 284 17.7 30.6 0.00 0.00 0.00 100 1010.6
20260507134442 10 301 16.1 30.6 0.00 0.00 0.00 100 1010.6
20260507134341 10 80 20.9 30.6 0.00 0.00 0.00 100 1010.2
20260507134238 10 275 16.1 27.4 0.00 0.00 0.00 100 1010.2
20260507134138 10 24 14.5 27.4 0.00 0.00 0.00 100 1010.2
20260507134056 10 330 19.3 27.4 0.00 0.00 0.00 100 1010.2
20260507133938 10 301 20.9 27.4 0.00 0.00 0.00 100 1010.2
20260507133836 10 329 17.7 27.4 0.00 0.00 0.00 100 1010.2
20260507133736 10 114 17.7 27.4 0.00 0.00 0.00 100 1010.2
20260507133654 10 329 17.7 30.6 0.00 0.00 0.00 100 1010.2
20260507133532 10 309 17.7 32.2 0.00 0.00 0.00 100 1010.2
20260507133432 10 306 22.5 32.2 0.00 0.00 0.00 100 1010.2
20260507133350 10 312 20.9 32.2 0.00 0.00 0.00 100 1010.2
20260507133232 10 248 17.7 32.2 0.00 0.00 0.00 100 1010.2
20260507133202 10 136 12.9 32.2 0.00 0.00 0.00 100 1010.2
20260507133039 10 213 16.1 32.2 0.00 0.00 0.00 100 1010.2
20260507132938 10 330 19.3 32.2 0.00 0.00 0.00 100 1010.2
20260507132837 10 323 20.9 32.2 0.00 0.00 0.00 100 1010.1
20260507132735 10 332 25.7 32.2 0.00 0.00 0.00 100 1010.1
20260507132635 10 312 22.5 32.2 0.00 0.00 0.00 100 1010.1
20260507132537 10 289 17.7 32.2 0.00 0.00 0.00 100 1010.1
20260507132435 10 308 19.3 32.2 0.00 0.00 0.00 100 1010.1
20260507132333 10 305 27.4 32.2 0.00 0.00 0.00 100 1010.1
20260507132232 10 328 19.3 32.2 0.00 0.00 0.00 100 1010.1
20260507132130 10 318 22.5 30.6 0.00 0.00 0.00 100 1010.1
20260507132029 10 302 20.9 30.6 0.00 0.00 0.00 100 1010.1
20260507131947 10 294 19.3 30.6 0.00 0.00 0.00 100 1010.1
20260507131831 10 299 17.7 30.6 0.00 0.00 0.00 100 1010.1
20260507131729 10 312 22.5 30.6 0.00 0.00 0.00 100 1010.1
20260507131659 10 326 22.5 30.6 0.00 0.00 0.00 100 1010.1
20260507131537 10 335 22.5 30.6 0.00 0.00 0.00 100 1010.1
20260507131434 10 251 19.3 30.6 0.00 0.00 0.00 100 1010.1
20260507131332 10 313 17.7 30.6 0.00 0.00 0.00 100 1009.9
20260507131231 10 305 19.3 30.6 0.00 0.00 0.00 100 1009.9
20260507131149 10 305 12.9 30.6 0.00 0.00 0.00 100 1009.9
20260507131034 10 315 17.7 30.6 0.00 0.00 0.00 100 1009.9
20260507130952 10 323 17.7 30.6 0.00 0.00 0.00 100 1009.9
20260507130830 10 304 17.7 30.6 0.00 0.00 0.00 100 1009.9
20260507130728 10 329 17.7 30.6 0.00 0.00 0.00 100 1009.9
20260507130647 10 284 20.9 30.6 0.00 0.00 0.00 100 1009.9
20260507130545 10 356 20.9 30.6 0.00 0.00 0.00 100 1009.9
20260507130503 10 274 20.9 30.6 0.00 0.00 0.00 100 1009.9
20260507130340 10 280 20.9 30.6 0.00 0.00 0.00 100 1009.9
20260507130237 10 254 19.3 30.6 0.00 0.00 0.00 100 1009.9
20260507130147 10 329 22.5 30.6 0.00 0.00 0.00 100 1009.9
20260507130025 10 325 25.7 32.2 0.00 0.00 0.00 100 1009.9
20260507125947 10 328 19.3 32.2 0.00 0.00 0.00 100 1009.9
20260507125825 10 332 17.7 32.2 0.00 0.00 0.00 100 1010.1
20260507125724 10 315 17.7 32.2 0.00 0.00 0.00 100 1010.1
20260507125643 10 332 16.1 32.2 0.00 0.00 0.00 100 1010.1
20260507125541 10 332 19.3 32.2 0.00 0.00 0.00 100 1010.1
20260507125443 10 330 20.9 32.2 0.00 0.00 0.00 100 1010.1
20260507125342 10 319 19.3 32.2 0.00 0.00 0.00 100 1010.1
20260507125300 10 328 24.1 32.2 0.00 0.00 0.00 100 1010.1
20260507125158 10 329 27.4 32.2 0.00 0.00 0.00 100 1010.1
20260507125055 10 237 17.7 32.2 0.00 0.00 0.00 100 1010.1
20260507124933 10 315 19.3 32.2 0.00 0.00 0.00 100 1010.1
20260507124831 10 287 20.9 32.2 0.00 0.00 0.00 100 1010.1
20260507124741 10 315 19.3 32.2 0.00 0.00 0.00 100 1010.1
20260507124651 10 319 19.3 32.2 0.00 0.00 0.00 100 1010.1
20260507124534 10 278 24.1 32.2 0.00 0.00 0.00 100 1010.1
20260507124433 10 328 24.1 32.2 0.00 0.00 0.00 100 1010.1
20260507124332 10 313 17.7 30.6 0.00 0.00 0.00 100 1009.7
20260507124230 10 316 20.9 30.6 0.00 0.00 0.00 100 1009.7
20260507124132 10 319 22.5 30.6 0.00 0.00 0.00 100 1009.7
20260507124029 10 291 19.3 30.6 0.00 0.00 0.00 100 1009.7
20260507123929 10 260 14.5 30.6 0.00 0.00 0.00 100 1009.7
20260507123832 10 267 20.9 30.6 0.00 0.00 0.00 100 1009.7
20260507123732 10 208 22.5 32.2 0.00 0.00 0.00 100 1009.7
20260507123630 10 282 16.1 32.2 0.00 0.00 0.00 100 1009.7
20260507123531 10 329 14.5 32.2 0.00 0.00 0.00 100 1009.7
20260507123430 10 237 17.7 32.2 0.00 0.00 0.00 100 1009.7
20260507123328 10 270 19.3 32.2 0.00 0.00 0.00 100 1009.7
20260507123242 10 285 14.5 32.2 0.00 0.00 0.00 100 1009.7
20260507123152 10 312 19.3 32.2 0.00 0.00 0.00 100 1009.7
20260507123029 10 253 17.7 32.2 0.00 0.00 0.00 100 1009.7
20260507122928 10 264 20.9 33.8 0.00 0.00 0.00 100 1009.7
20260507122827 10 188 27.4 33.8 0.00 0.00 0.00 100 1009.7
20260507122729 10 285 24.1 33.8 0.00 0.00 0.00 100 1009.7
20260507122629 10 208 20.9 33.8 0.00 0.00 0.00 100 1009.7
20260507122531 10 320 24.1 33.8 0.00 0.00 0.00 100 1009.7
20260507122429 10 308 19.3 33.8 0.00 0.00 0.00 100 1009.7
20260507122328 10 326 22.5 33.8 0.00 0.00 0.00 100 1009.7
20260507122250 10 261 25.7 33.8 0.00 0.00 0.00 100 1009.7
20260507122149 10 312 24.1 33.8 0.00 0.00 0.00 100 1009.7
20260507122026 10 271 25.7 32.2 0.00 0.00 0.00 100 1009.7
20260507121945 10 236 19.3 32.2 0.00 0.00 0.00 100 1009.7
20260507121824 10 282 20.9 32.2 0.00 0.00 0.00 100 1009.7
20260507121728 10 326 20.9 32.2 0.00 0.00 0.00 100 1009.7
20260507121658 10 298 20.9 32.2 0.00 0.00 0.00 100 1009.7
20260507121535 10 320 14.5 32.2 0.00 0.00 0.00 100 1009.7
20260507121436 10 237 17.7 32.2 0.00 0.00 0.00 100 1009.7
20260507121334 10 280 24.1 32.2 0.00 0.00 0.00 100 1009.3
20260507121254 10 281 20.9 32.2 0.00 0.00 0.00 99 1009.3
20260507121152 10 328 20.9 32.2 0.00 0.00 0.00 99 1009.3
20260507121030 10 233 20.9 32.2 0.00 0.00 0.00 99 1009.3
20260507120932 10 220 22.5 32.2 0.00 0.00 0.00 99 1009.3
20260507120853 10 104 16.1 32.2 0.00 0.00 0.00 99 1009.3
20260507120750 10 312 22.5 32.2 0.00 0.00 0.00 99 1009.3
20260507120628 10 299 20.9 32.2 0.00 0.00 0.00 99 1009.3
20260507120526 10 152 20.9 32.2 0.00 0.00 0.00 99 1009.3
20260507120444 10 246 20.9 33.8 0.00 0.00 0.00 99 1009.3
20260507120343 10 305 20.9 33.8 0.00 0.00 0.00 99 1009.3
20260507120232 10 326 20.9 33.8 0.00 0.00 0.00 99 1009.3
20260507120147 10 274 17.7 33.8 0.00 0.00 0.00 99 1009.3
20260507120043 10 312 17.7 33.8 0.00 0.00 0.00 99 1009.3
20260507115942 10 233 22.5 33.8 0.00 0.00 0.00 99 1009.3
20260507115901 10 260 24.1 33.8 0.00 0.00 0.00 99 1009.0
20260507115738 10 247 20.9 33.8 0.00 0.00 0.00 99 1009.0
20260507115657 10 200 22.5 33.8 0.00 0.00 0.00 99 1009.0
20260507115535 10 299 20.9 32.2 0.00 0.00 0.00 99 1009.0
20260507115433 10 236 19.3 32.2 0.00 0.00 0.00 99 1009.0
20260507115337 10 176 19.3 32.2 0.00 0.00 0.00 99 1009.0
20260507115234 10 287 24.1 32.2 0.00 0.00 0.00 99 1009.0
20260507115133 10 294 19.3 32.2 0.00 0.00 0.00 99 1009.0
20260507115032 10 325 20.9 32.2 0.00 0.00 0.00 99 1009.0
20260507114930 10 278 25.7 32.2 0.00 0.00 0.00 99 1009.0
20260507114830 10 291 27.4 32.2 0.00 0.00 0.00 99 1009.0
20260507114738 10 309 20.9 32.2 0.00 0.00 0.00 99 1009.0
20260507114651 10 325 22.5 32.2 0.00 0.00 0.00 99 1009.0
20260507114530 10 229 22.5 32.2 0.00 0.00 0.00 99 1009.0
20260507114429 10 243 20.9 30.6 0.00 0.00 0.00 99 1009.0
20260507114348 10 316 19.3 30.6 0.00 0.00 0.00 99 1009.2
20260507114245 10 326 19.3 30.6 0.00 0.00 0.00 99 1009.2
20260507114144 10 332 19.3 30.6 0.00 0.00 0.00 99 1009.2
20260507114104 10 325 19.3 30.6 0.00 0.00 0.00 99 1009.2
20260507114001 10 264 19.3 30.6 0.00 0.00 0.00 99 1009.2
20260507113838 10 315 24.1 30.6 0.00 0.00 0.00 99 1009.2
20260507113741 10 328 20.9 30.6 0.00 0.00 0.00 99 1009.2
20260507113639 10 313 20.9 30.6 0.00 0.00 0.00 99 1009.2
20260507113539 10 216 22.5 30.6 0.00 0.00 0.00 99 1009.2
20260507113437 10 326 16.1 30.6 0.00 0.00 0.00 99 1009.2
20260507113335 10 301 20.9 30.6 0.00 0.00 0.00 99 1009.2
20260507113253 10 323 14.5 30.6 0.00 0.00 0.00 99 1009.2
20260507113225 10 320 17.7 32.2 0.00 0.00 0.00 99 1009.2
20260507113040 10 309 20.9 32.2 0.00 0.00 0.00 99 1009.2
20260507112924 10 203 19.3 32.2 0.00 0.00 0.00 99 1009.2
20260507112843 10 271 17.7 32.2 0.00 0.00 0.00 99 1008.7
20260507112801 10 326 19.3 32.2 0.00 0.00 0.00 99 1008.7
20260507112640 10 325 20.9 32.2 0.00 0.00 0.00 99 1008.7
20260507112539 10 282 22.5 32.2 0.00 0.00 0.00 99 1008.7
20260507112438 10 308 22.5 32.2 0.00 0.00 0.00 99 1008.7
20260507112340 10 280 20.9 32.2 0.00 0.00 0.00 99 1008.7
20260507112241 10 288 24.1 32.2 0.00 0.00 0.00 99 1008.7
20260507112140 10 288 20.9 33.8 0.00 0.00 0.00 99 1008.7
20260507112038 10 268 20.9 33.8 0.00 0.00 0.00 99 1008.7
20260507111937 10 294 19.3 33.8 0.00 0.00 0.00 99 1008.7
20260507111835 10 298 22.5 33.8 0.00 0.00 0.00 99 1008.7
20260507111735 10 278 22.5 33.8 0.00 0.00 0.00 99 1008.7
20260507111704 10 299 20.9 33.8 0.00 0.00 0.00 99 1008.7
20260507111526 10 291 20.9 33.8 0.00 0.00 0.00 99 1008.7
20260507111424 10 325 20.9 33.8 0.00 0.00 0.00 99 1008.7
20260507111343 10 309 22.5 33.8 0.00 0.00 0.00 99 1008.6
20260507111241 10 302 27.4 33.8 0.00 0.00 0.00 99 1008.6
20260507111139 10 287 20.9 30.6 0.00 0.00 0.00 99 1008.6
20260507111038 10 330 19.3 29.0 0.00 0.00 0.00 99 1008.6
20260507110957 10 330 20.9 29.0 0.00 0.00 0.00 99 1008.6
20260507110839 10 335 19.3 29.0 0.00 0.00 0.00 99 1008.6
20260507110737 10 299 19.3 29.0 0.00 0.00 0.00 99 1008.6
20260507110655 10 330 17.7 29.0 0.00 0.00 0.00 99 1008.6
20260507110533 10 322 19.3 29.0 0.00 0.00 0.00 99 1008.6
20260507110431 10 328 19.3 29.0 0.00 0.00 0.00 99 1008.6
20260507110331 10 315 20.9 30.6 0.00 0.00 0.00 99 1008.6
20260507110240 10 318 19.3 30.6 0.00 0.00 0.00 99 1008.6
20260507110150 10 332 19.3 30.6 0.00 0.00 0.00 99 1008.6
20260507110031 10 325 19.3 30.6 0.00 0.00 0.00 99 1008.6
20260507105949 10 332 17.7 30.6 0.00 0.00 0.00 99 1008.6
20260507105846 10 309 17.7 30.6 0.00 0.00 0.00 99 1008.3
20260507105724 10 302 19.3 30.6 0.00 0.00 0.00 99 1008.3
20260507105641 10 294 19.3 30.6 0.00 0.00 0.00 99 1008.3
20260507105540 10 332 20.9 30.6 0.00 0.00 0.00 99 1008.3
20260507105438 10 274 22.5 30.6 0.00 0.00 0.00 99 1008.3
20260507105358 10 322 24.1 30.6 0.00 0.00 0.00 98 1008.3
20260507105256 10 316 17.7 30.6 0.00 0.00 0.00 98 1008.3
20260507105158 10 326 20.9 30.6 0.00 0.00 0.00 99 1008.3
20260507105035 10 326 20.9 30.6 0.00 0.00 0.00 98 1008.3
20260507104935 10 308 19.3 29.0 0.00 0.00 0.00 99 1008.3
20260507104832 10 332 20.9 30.6 0.00 0.00 0.00 99 1008.3
20260507104743 10 329 22.5 30.6 0.00 0.00 0.00 98 1008.3
20260507104652 10 330 20.9 30.6 0.00 0.00 0.00 98 1008.3
20260507104550 10 328 17.7 30.6 0.00 0.00 0.00 99 1008.3
20260507104425 10 313 20.9 30.6 0.00 0.00 0.00 99 1008.3
20260507104347 10 304 20.9 30.6 0.00 0.00 0.00 99 1008.3
20260507104305 10 328 19.3 30.6 0.00 0.00 0.00 98 1008.3
20260507104202 10 326 19.3 32.2 0.00 0.00 0.00 99 1008.3
20260507104100 10 288 22.5 32.2 0.00 0.00 0.00 99 1008.3
20260507103938 10 265 22.5 32.2 0.00 0.00 0.00 99 1008.3
20260507103837 10 326 20.9 33.8 0.00 0.00 0.00 99 1008.3
20260507103735 10 325 17.7 33.8 0.00 0.00 0.00 99 1008.3
20260507103653 10 323 19.3 33.8 0.00 0.00 0.00 99 1008.3
20260507103531 10 330 22.5 33.8 0.00 0.00 0.00 99 1008.3
20260507103434 10 329 22.5 33.8 0.00 0.00 0.00 99 1008.3
20260507103334 10 216 24.1 33.8 0.00 0.00 0.00 99 1008.3
20260507103233 10 295 20.9 33.8 0.00 0.00 0.00 99 1008.3
20260507103203 10 281 20.9 33.8 0.00 0.00 0.00 99 1008.3
20260507103039 10 335 22.5 33.8 0.00 0.00 0.00 99 1008.3
20260507102938 10 312 24.1 33.8 0.00 0.00 0.00 98 1008.3
20260507102838 10 308 20.9 32.2 0.00 0.00 0.00 98 1008.2
20260507102756 10 308 19.3 32.2 0.00 0.00 0.00 98 1008.2
20260507102638 10 318 22.5 32.2 0.00 0.00 0.00 99 1008.2
20260507102536 10 347 20.9 32.2 0.00 0.00 0.00 99 1008.2
20260507102455 10 326 19.3 32.2 0.00 0.00 0.00 99 1008.2
20260507102353 10 292 24.1 32.2 0.00 0.00 0.00 98 1008.2
20260507102251 10 257 19.3 30.6 0.00 0.00 0.00 99 1008.2
20260507102128 10 263 16.1 30.6 0.00 0.00 0.00 99 1008.2
20260507102026 10 306 20.9 30.6 0.00 0.00 0.00 98 1008.2
20260507101924 10 291 17.7 33.8 0.00 0.00 0.00 98 1008.2
20260507101827 10 278 20.9 33.8 0.00 0.00 0.00 99 1008.2
20260507101725 10 323 20.9 33.8 0.00 0.00 0.00 99 1008.2
20260507101656 10 332 17.7 33.8 0.00 0.00 0.00 99 1008.2
20260507101533 10 333 20.9 33.8 0.00 0.00 0.00 98 1008.2
20260507101432 10 206 22.5 33.8 0.00 0.00 0.00 98 1008.2
20260507101331 10 322 20.9 33.8 0.00 0.00 0.00 98 1007.8
20260507101229 10 330 19.3 33.8 0.00 0.00 0.00 98 1007.8
20260507101133 10 277 22.5 33.8 0.00 0.00 0.00 98 1007.8
20260507101032 10 284 24.1 33.8 0.00 0.00 0.00 98 1007.8
20260507100950 10 271 24.1 33.8 0.00 0.00 0.00 98 1007.8
20260507100827 10 272 20.9 33.8 0.00 0.00 0.00 98 1007.8
20260507100725 10 243 19.3 33.8 0.00 0.00 0.00 98 1007.8
20260507100644 10 302 20.9 33.8 0.00 0.00 0.00 98 1007.8
20260507100542 10 329 24.1 33.8 0.00 0.00 0.00 98 1007.8
20260507100425 10 312 19.3 30.6 0.00 0.00 0.00 98 1007.8
20260507100324 10 333 22.5 30.6 0.00 0.00 0.00 98 1007.8
20260507100243 10 329 20.9 30.6 0.00 0.00 0.00 98 1007.8
20260507100215 10 291 24.1 33.8 0.00 0.00 0.00 98 1007.8
20260507100031 10 302 20.9 35.4 0.00 0.00 0.00 98 1007.8
20260507095929 10 253 22.5 35.4 0.00 0.00 0.00 98 1007.8
20260507095848 10 168 19.3 35.4 0.00 0.00 0.00 98 1008.5
20260507095746 10 332 20.9 35.4 0.00 0.00 0.00 98 1008.5
20260507095625 10 315 25.7 35.4 0.00 0.00 0.00 98 1008.5
20260507095526 10 265 20.9 35.4 0.00 0.00 0.00 98 1008.5
20260507095424 10 320 17.7 35.4 0.00 0.00 0.00 98 1008.5
20260507095342 10 291 22.5 35.4 0.00 0.00 0.00 98 1008.5
20260507095301 10 308 25.7 35.4 0.00 0.00 0.00 98 1008.5
20260507095142 10 308 19.3 32.2 0.00 0.00 0.00 98 1008.5
20260507095040 10 328 22.5 32.2 0.00 0.00 0.00 98 1008.5